ECMWFFLT1_sfc_thetae_000.txt.gz
Theta_e
276 275 275 274 274 275 274 274 274 273 273 273 273 272 273 273 273 272 272 272 272 272 272 271 271 271 271 271 271 271 271 271 272 272 272 273 274 274 274 274 274 274 275 275 275 275 275 275 275 275 275 275 274 275 275 275 276 276 276 277 279 280
276 275 275 274 273 273 273 273 272 272 272 273 273 273 272 272 271 271 271 271 271 271 271 271 271 271 271 271 271 270 270 271 271 271 272 272 273 273 273 273 273 273 273 274 274 274 275 275 275 275 274 274 274 274 274 274 275 274 275 276 276 277
275 275 275 274 272 273 273 272 272 272 272 271 272 271 271 271 271 270 270 271 270 270 269 269 270 269 270 270 270 270 270 270 271 271 271 272 271 272 272 272 272 273 273 274 274 274 274 274 274 274 273 273 272 273 273 273 274 273 274 275 275 275
275 274 273 271 271 272 272 271 271 270 270 271 271 271 270 270 270 270 270 270 270 269 269 269 269 269 269 269 269 269 269 270 270 270 270 270 270 271 271 271 272 272 273 273 273 273 273 273 273 273 273 272 271 271 272 272 272 273 273 274 274 274
275 274 273 272 273 273 272 271 271 271 270 270 270 270 270 270 270 270 270 269 269 269 269 269 268 268 268 268 268 268 268 269 269 270 269 269 270 270 271 271 271 271 272 272 272 272 271 272 272 272 272 271 271 270 271 271 272 272 272 272 272 273
274 273 273 272 272 271 271 271 270 270 270 270 269 269 270 270 270 270 269 269 269 269 268 268 268 268 268 267 268 267 268 268 268 269 268 269 269 269 270 271 270 271 271 270 270 270 270 270 270 270 270 270 270 270 270 271 271 272 272 272 272 272
273 273 273 273 272 272 271 271 270 270 269 269 269 269 269 269 269 269 268 268 268 268 267 267 267 267 267 267 267 267 267 267 268 268 268 268 269 269 269 269 270 269 269 269 268 268 268 268 268 268 269 269 270 270 270 270 270 271 272 272 272 273
274 273 273 273 272 272 271 270 270 269 269 269 269 268 268 268 268 268 268 267 267 267 266 267 267 267 267 267 267 267 267 267 267 267 268 268 268 268 268 268 268 268 267 267 267 267 267 267 267 268 268 268 269 269 269 270 270 270 271 271 272 272
273 273 272 272 272 271 271 270 269 268 268 268 268 267 267 267 267 267 267 267 266 266 266 266 266 266 266 266 266 266 267 267 266 267 267 268 267 266 266 266 266 266 266 266 266 266 266 266 266 266 267 267 268 268 268 269 269 270 271 271 271 272
273 272 272 271 271 270 270 269 269 268 267 267 267 267 267 267 266 266 266 266 266 266 266 266 266 266 266 266 266 266 266 266 266 266 266 265 265 264 264 264 264 265 265 265 265 265 265 265 265 266 266 267 267 268 268 268 269 269 270 271 271 272
273 272 271 271 271 270 269 268 267 266 267 267 266 266 266 266 266 265 265 265 265 265 265 266 266 266 265 265 265 265 264 264 264 264 264 263 263 263 263 263 263 263 263 264 264 264 265 265 265 266 266 266 267 268 268 268 269 269 269 270 270 271
273 272 271 271 270 269 268 267 266 266 266 266 266 265 266 265 265 265 264 264 265 265 265 265 265 265 264 264 263 263 263 262 262 262 262 262 262 262 262 262 262 262 262 262 263 264 264 264 265 267 271 272 269 269 270 270 270 270 270 270 270 270
272 272 271 271 270 269 268 266 266 265 265 265 265 265 265 265 264 264 264 264 264 265 265 264 264 263 263 262 262 261 261 261 261 260 260 260 260 260 261 261 261 261 262 262 263 263 264 265 266 270 272 273 275 272 271 271 271 272 271 271 271 270
272 272 271 271 270 268 267 266 265 265 265 265 264 265 265 264 264 263 263 264 264 264 264 263 263 262 261 261 260 260 260 259 259 259 259 259 259 260 260 260 261 261 262 263 263 264 264 265 269 272 273 274 275 275 272 272 272 272 272 272 272 272
273 272 271 270 269 268 267 266 265 265 265 264 265 264 263 263 263 263 263 263 263 263 263 262 261 260 260 260 259 259 258 258 258 258 258 258 259 260 260 260 261 262 263 263 263 264 264 265 270 272 273 274 275 276 275 273 273 272 272 273 273 273
273 272 271 270 269 267 266 266 265 265 265 264 264 263 263 263 263 262 262 262 262 262 262 261 260 259 259 259 258 258 258 257 257 258 259 259 260 260 261 261 262 263 263 263 263 263 264 264 268 272 273 274 275 276 276 274 274 273 273 273 273 274
273 271 269 267 266 266 266 266 265 265 264 264 263 263 263 262 262 262 262 262 262 261 260 260 259 258 258 258 258 257 257 257 258 258 259 259 260 260 261 261 261 261 262 262 263 263 263 264 270 272 273 274 275 276 277 274 274 275 275 275 275 274
272 270 267 267 266 265 265 265 265 264 263 264 264 263 261 261 260 262 261 260 260 259 260 259 258 258 257 257 257 256 257 257 258 258 259 260 260 261 261 261 262 261 261 262 262 262 262 263 270 271 272 274 275 277 274 274 274 275 274 274 275 275
271 269 267 266 265 265 265 265 264 263 263 262 262 261 261 261 260 260 260 259 259 259 259 259 258 257 256 256 256 256 256 257 257 258 260 260 260 260 260 260 261 261 261 261 261 262 262 263 267 271 273 274 275 275 273 274 275 275 275 275 275 275
268 267 266 265 265 265 264 264 263 262 262 262 261 261 261 260 259 260 259 259 259 259 258 258 257 256 256 256 255 256 257 257 258 259 260 259 259 259 260 260 260 260 261 261 261 262 262 264 267 271 272 273 275 275 273 273 273 274 275 275 275 275
266 265 265 265 263 264 264 263 262 262 261 261 261 261 260 259 259 259 258 259 259 258 257 256 256 256 255 255 255 256 256 257 258 259 260 260 259 259 260 260 260 260 260 261 261 265 264 263 265 270 271 273 274 274 273 273 273 273 273 274 275 276
265 265 264 264 264 263 263 262 262 261 261 261 261 260 259 259 259 259 259 258 258 257 256 256 255 255 255 255 255 256 257 258 258 259 259 259 259 259 259 259 259 259 260 261 262 262 263 263 264 266 272 274 274 275 272 272 271 271 272 274 275 275
266 265 265 264 263 263 262 262 261 260 260 260 260 259 259 259 259 257 257 257 256 255 255 255 254 254 254 255 255 257 257 258 258 258 258 258 259 258 258 259 259 259 260 261 262 262 263 264 265 267 272 273 273 274 274 271 272 272 272 273 274 275
264 264 263 263 262 262 262 261 260 260 259 259 258 258 259 258 257 256 255 255 254 254 254 254 254 255 255 256 256 256 257 258 258 258 258 258 258 258 258 259 259 260 260 261 262 262 263 266 269 267 270 272 273 274 275 272 272 273 273 273 273 274
263 262 262 262 262 261 261 260 259 259 258 258 258 258 258 257 256 255 254 254 253 253 253 254 254 255 255 256 256 256 256 257 257 257 258 257 258 258 258 259 260 260 261 261 262 263 264 266 266 269 268 271 272 274 274 275 274 276 274 272 272 273
262 261 261 261 261 261 260 259 258 258 257 258 258 258 257 256 254 253 252 252 253 253 253 254 254 255 255 255 256 256 256 256 256 257 257 258 258 259 259 260 261 261 261 261 262 263 264 266 266 268 270 269 272 273 274 275 275 276 273 273 272 273
261 260 260 260 259 259 259 258 257 257 257 257 257 257 255 254 252 251 251 251 252 252 253 253 254 254 254 255 255 255 255 255 256 256 257 258 259 260 260 261 262 261 261 261 262 263 264 265 265 265 267 271 271 273 274 274 275 275 276 272 272 273
260 259 258 259 259 258 258 258 257 255 257 257 256 256 254 252 250 251 250 250 251 251 252 252 254 254 254 254 255 255 255 255 256 256 257 259 260 260 260 261 262 262 262 262 262 263 264 265 265 265 266 268 269 271 272 273 274 274 274 274 272 275
259 258 258 257 258 257 257 257 257 257 256 256 255 255 253 250 250 251 250 250 250 251 252 252 253 254 255 254 254 255 255 255 256 257 258 260 260 260 261 263 262 262 262 262 262 263 264 264 264 265 265 266 268 269 270 270 270 272 273 271 271 273
259 258 258 257 258 257 256 256 256 256 255 255 254 252 250 251 251 250 249 249 251 251 251 252 256 255 253 254 254 254 254 255 256 257 259 259 260 261 262 263 262 262 262 262 263 263 263 263 264 264 265 267 268 268 269 269 269 269 269 270 271 272
259 258 258 258 258 257 256 255 255 255 255 255 253 251 251 251 251 250 249 250 250 250 253 252 251 252 252 253 254 254 254 255 257 259 259 261 262 264 264 263 263 264 264 264 263 263 263 263 264 265 271 269 272 269 268 268 268 269 270 272 275 273
259 258 258 257 257 256 255 255 255 255 255 253 252 251 249 250 250 249 249 249 249 250 251 251 250 251 252 251 252 253 254 259 263 262 261 260 265 268 269 269 265 266 266 265 265 266 265 264 265 271 272 272 272 272 272 272 272 273 271 273 274 274
259 258 257 256 256 255 255 254 254 253 254 253 252 250 249 249 249 248 248 249 248 251 252 250 250 251 251 252 252 252 252 253 255 262 265 265 266 267 268 268 269 270 270 267 265 267 271 271 271 271 271 272 272 272 271 271 271 272 272 272 268 268
258 257 256 256 255 254 254 253 253 252 252 252 251 250 249 249 249 247 246 248 249 251 252 251 251 251 251 251 252 252 252 251 251 252 261 265 265 266 267 267 268 268 269 270 269 268 266 269 271 271 271 271 271 270 270 270 270 272 271 270 269 263
258 257 257 255 255 254 253 252 252 252 252 250 250 249 249 248 248 247 246 247 249 250 251 251 250 250 250 249 250 250 251 251 250 250 250 255 262 264 264 265 266 267 268 269 270 271 270 270 270 271 271 270 270 270 269 269 268 270 270 268 261 260
257 256 255 254 254 253 253 252 252 252 251 250 249 248 247 246 247 247 246 247 249 250 249 249 249 249 249 249 250 250 250 250 250 249 250 250 251 254 258 262 263 265 267 268 269 270 270 270 270 270 270 270 269 269 268 267 263 269 269 266 259 260
256 255 255 254 253 253 252 252 252 251 250 247 246 247 247 248 249 247 249 252 253 249 249 249 249 248 248 249 249 249 250 250 251 251 250 250 250 250 251 252 254 260 265 264 265 269 270 269 269 269 269 269 269 268 266 265 259 258 258 259 259 259
255 254 254 253 253 252 251 251 251 251 249 247 246 246 247 248 248 247 249 250 251 249 249 248 246 247 247 248 249 250 250 251 250 250 249 250 251 250 251 252 253 254 260 265 265 269 268 268 268 268 268 268 268 267 264 256 257 257 257 258 258 259

ECMWFFLT1_sfc_thetae_003.txt.gz
Theta_e
279 279 279 279 279 279 278 277 276 276 276 276 276 275 275 275 275 275 274 274 273 273 273 273 272 272 272 272 272 272 271 271 272 272 272 272 273 273 273 273 274 274 274 274 274 274 275 275 275 276 276 276 275 276 276 276 276 275 275 276 276 276
279 279 279 278 278 277 276 276 275 275 275 276 274 274 274 274 273 274 273 273 273 272 272 272 272 272 272 271 271 271 271 271 271 271 271 272 272 272 273 272 272 272 272 273 273 273 274 274 274 275 275 275 275 275 275 275 275 275 274 274 275 275
279 279 278 278 277 276 275 275 275 274 274 274 275 274 273 273 273 272 272 272 272 272 271 271 271 271 271 271 271 270 270 271 271 271 271 272 271 272 271 271 271 272 272 272 272 273 273 273 273 274 275 274 274 274 274 274 274 274 273 273 273 274
278 277 277 276 275 275 274 275 274 273 273 273 273 273 272 272 272 272 272 272 271 271 271 271 271 271 270 270 270 270 270 270 270 271 271 270 271 271 270 270 271 271 272 271 272 272 272 272 273 273 273 273 272 272 273 273 273 273 272 272 272 272
277 277 276 275 275 275 274 274 274 274 273 272 272 272 272 272 272 272 271 271 271 270 270 270 270 270 270 269 269 269 270 270 270 270 270 269 270 270 270 270 271 271 271 271 271 271 271 271 271 272 271 271 271 271 271 272 272 271 271 271 271 271
276 276 275 274 274 274 274 274 274 273 272 272 272 271 271 271 271 271 271 270 270 270 270 269 269 269 269 269 269 269 269 269 269 269 269 269 269 269 270 270 270 270 270 269 269 269 269 269 270 270 270 269 269 269 269 270 270 270 270 270 270 271
275 276 276 275 275 274 274 273 273 272 272 271 271 271 271 270 271 270 270 269 269 269 269 269 269 268 268 268 269 268 269 269 269 269 268 269 269 269 269 269 269 268 268 267 267 267 267 267 268 268 268 268 268 268 268 268 268 269 269 270 270 271
276 276 276 275 275 274 274 273 273 272 271 271 271 270 270 270 270 270 269 269 268 268 268 268 268 268 268 268 268 268 268 268 268 268 268 268 267 267 267 267 266 266 266 266 266 266 266 266 266 266 266 267 267 267 267 267 267 268 268 269 269 269
275 276 275 275 275 274 274 273 272 271 271 270 270 269 269 269 269 269 268 268 268 267 268 268 267 268 267 268 267 267 267 267 267 266 266 266 265 265 265 265 265 265 265 265 265 265 265 265 265 265 265 266 266 266 266 266 266 267 267 268 268 269
276 275 275 274 274 274 273 273 272 271 270 269 269 269 268 269 268 268 267 267 267 267 267 267 267 267 267 267 267 266 266 266 265 265 265 264 264 263 263 263 263 263 264 264 264 264 264 264 264 265 265 265 266 266 266 266 266 267 267 268 268 269
275 275 275 274 274 273 272 271 270 270 269 269 269 268 268 268 267 267 267 266 266 267 267 267 267 267 267 266 265 265 264 264 263 263 263 263 262 263 263 263 263 263 263 263 263 264 264 264 264 265 265 265 266 266 267 267 268 268 268 268 269 269
276 275 275 274 273 273 271 270 269 269 268 268 268 267 267 267 267 266 266 266 266 266 267 266 266 266 265 265 264 263 263 262 262 261 261 261 262 262 262 262 262 262 262 262 263 263 264 264 265 267 270 271 269 268 269 269 269 269 270 270 270 269
276 275 274 274 273 273 271 270 269 268 268 268 267 267 267 267 266 266 265 266 266 266 266 266 265 265 264 263 263 262 261 261 260 260 260 260 261 261 261 262 262 262 263 263 263 263 264 264 265 269 271 273 273 271 269 269 269 270 270 270 270 271
275 275 274 274 274 272 271 270 268 268 267 267 267 266 266 266 265 265 265 265 265 265 265 265 264 263 262 262 261 261 260 260 259 259 260 260 260 261 261 261 262 263 263 263 264 263 264 264 268 270 271 272 273 273 270 269 269 270 271 271 271 272
276 275 275 275 273 272 271 270 268 267 267 266 266 266 265 265 265 265 265 265 265 264 264 263 262 262 261 261 260 259 259 259 259 259 259 259 260 261 261 262 262 262 263 263 263 263 263 264 268 270 271 272 273 274 273 270 270 270 271 272 272 272
276 276 276 275 274 273 271 270 269 268 267 267 266 265 265 264 265 264 264 264 264 264 263 262 261 260 260 260 259 259 259 258 258 259 260 260 260 261 261 261 262 262 262 262 262 263 263 263 267 270 271 272 273 274 273 270 271 271 271 272 272 273
276 276 275 274 272 271 269 268 268 267 266 265 265 265 264 264 265 264 264 264 263 262 261 261 260 259 259 259 258 258 258 258 258 259 260 260 260 260 260 261 261 261 261 262 262 262 262 263 268 270 272 272 273 274 274 271 271 271 271 272 273 273
276 275 275 274 270 269 268 267 267 266 265 265 265 265 264 264 264 264 264 263 262 261 261 260 259 259 258 258 258 257 258 258 258 258 259 260 260 261 261 261 261 261 261 261 261 261 261 262 269 270 271 273 274 275 271 270 270 270 271 272 273 273
277 276 273 270 268 268 268 267 266 266 265 264 264 264 264 264 263 263 262 261 261 260 260 260 259 257 257 257 257 257 257 258 258 258 260 259 260 260 260 260 260 261 261 261 261 261 261 262 266 270 272 273 274 272 269 270 270 270 270 270 271 272
275 272 269 268 268 268 267 266 265 265 264 264 264 264 264 263 263 262 261 261 261 260 259 259 258 257 257 256 256 256 257 258 258 259 259 259 259 259 260 260 260 261 261 261 261 261 261 262 266 270 271 272 273 273 270 270 269 269 269 270 271 272
271 269 269 268 267 267 266 265 265 264 264 264 264 264 263 263 262 261 260 260 260 259 258 258 257 257 256 256 256 256 256 257 258 258 259 259 259 259 260 260 260 260 261 261 261 264 264 263 265 269 271 272 273 272 270 269 269 268 269 269 270 271
269 268 268 267 266 266 265 265 265 264 264 264 263 262 262 262 261 261 260 260 259 258 258 257 256 256 255 256 256 256 257 258 258 258 259 259 259 259 259 260 260 259 260 262 262 263 264 264 264 266 271 273 273 274 270 270 268 268 268 269 269 270
269 268 267 267 265 265 265 265 264 264 263 263 262 262 262 261 261 260 259 259 258 257 257 256 256 255 255 256 256 257 257 258 258 258 258 258 258 258 259 259 260 261 262 264 264 264 264 265 266 267 272 272 273 274 273 269 269 269 269 269 269 270
268 267 266 265 264 264 264 265 264 263 262 262 262 262 261 260 259 258 257 257 257 256 255 254 255 255 255 256 256 256 256 257 257 257 257 258 258 257 258 259 261 263 264 264 265 265 265 267 269 267 270 272 273 274 274 271 270 271 270 270 270 270
267 266 265 264 264 264 265 264 263 262 262 262 261 260 260 259 258 257 257 256 255 254 254 254 254 255 255 255 256 256 256 256 256 256 257 257 257 257 258 261 262 263 264 264 265 266 266 266 267 270 269 272 273 274 275 275 273 275 272 270 269 270
265 264 263 263 263 264 264 263 262 261 261 261 260 259 258 257 257 256 255 255 254 254 254 254 254 255 255 254 255 255 255 255 256 256 256 257 257 258 259 261 262 263 263 263 264 265 266 267 267 269 271 271 273 274 275 275 275 275 272 271 270 270
264 263 262 263 263 263 263 263 262 261 261 260 259 258 257 256 255 254 253 253 253 253 253 253 254 254 253 254 254 254 255 255 255 255 256 256 257 259 260 261 262 263 263 263 264 264 265 266 267 267 269 273 273 274 274 275 275 275 275 270 270 271
263 262 261 261 261 261 262 262 262 260 260 259 259 258 257 255 253 253 252 252 253 253 252 253 253 254 254 254 254 254 254 254 255 255 256 257 259 260 260 260 262 263 263 263 264 264 265 266 267 267 268 269 271 272 273 273 274 273 273 273 271 274
261 261 260 259 260 260 260 260 261 260 259 258 257 257 255 253 253 253 252 252 252 253 252 253 254 254 254 253 253 254 254 255 255 255 257 259 259 259 260 262 263 263 263 263 264 264 265 265 266 267 268 269 269 269 269 270 269 272 272 270 270 271
262 260 260 259 259 259 259 259 259 258 257 257 256 255 254 253 253 253 252 252 252 252 252 252 254 253 253 252 252 253 253 254 255 256 258 259 260 259 261 263 263 263 263 263 264 264 264 265 266 267 268 269 269 269 269 269 268 268 269 269 269 269
261 260 260 259 259 259 258 257 257 257 257 256 254 253 253 253 253 252 252 252 252 253 252 251 251 252 252 252 251 253 254 253 254 257 259 262 263 264 264 264 264 264 265 265 265 264 264 266 266 267 272 270 272 269 268 267 268 268 269 270 272 267
261 260 259 259 258 257 257 256 256 256 256 255 254 253 253 252 252 252 252 252 252 252 251 250 251 251 251 251 251 252 252 256 261 262 261 262 266 268 269 268 265 265 266 265 266 266 266 266 267 273 273 273 273 272 272 271 271 272 271 271 271 267
261 260 259 258 257 257 256 255 255 255 255 254 254 253 253 253 252 251 251 251 251 253 251 251 251 251 251 251 251 251 251 252 254 260 264 266 266 267 268 268 269 269 270 267 265 267 272 272 272 273 272 272 272 272 271 270 270 271 272 271 266 263
260 259 258 257 257 256 256 255 255 254 254 254 253 253 252 253 253 251 251 251 251 253 252 252 252 251 251 250 251 250 251 250 250 252 260 265 264 266 267 267 268 268 269 270 269 268 267 269 271 272 271 271 271 271 270 269 268 270 271 270 268 261
260 259 258 257 256 255 255 254 254 254 254 253 253 252 252 252 252 251 250 251 252 252 252 251 251 251 250 249 249 249 249 250 249 249 250 254 262 264 264 265 266 267 268 269 269 270 270 270 270 271 270 270 270 270 269 268 267 268 269 268 262 260
260 259 257 256 256 255 254 254 253 253 253 252 252 252 251 251 251 251 250 251 252 251 251 251 250 250 249 249 250 249 250 249 249 249 249 249 250 252 257 262 263 265 266 267 268 269 270 270 269 270 269 270 269 269 268 266 261 266 267 265 260 260
259 257 257 256 255 255 254 254 253 253 252 251 251 250 250 251 251 251 253 253 252 251 250 250 251 250 249 248 248 249 250 249 250 250 250 249 249 249 250 251 253 258 263 263 264 267 269 269 268 268 268 268 268 268 267 263 256 255 255 257 259 260
258 257 256 255 255 255 254 253 253 252 251 250 250 251 251 251 252 252 253 253 252 251 251 249 248 249 248 248 249 250 251 251 251 249 249 249 249 249 249 250 251 252 258 264 264 267 268 268 267 267 267 267 267 267 264 255 254 254 254 255 257 258

ECMWFFLT1_sfc_thetae_006.txt.gz
Theta_e
286 286 285 285 285 285 285 285 285 285 284 285 284 283 283 282 282 282 281 280 280 279 279 278 278 278 278 277 277 277 276 276 277 277 277 277 277 277 277 277 277 277 277 277 277 277 277 278 278 278 278 278 278 278 278 278 279 278 278 278 278 278
287 286 285 285 285 285 285 285 284 284 284 284 284 283 283 282 281 281 279 279 279 278 278 278 278 277 277 277 276 276 276 276 276 276 276 276 277 277 276 276 276 276 276 276 276 276 276 277 277 277 277 277 277 277 277 277 278 277 277 277 278 278
286 286 286 285 285 285 285 284 283 284 284 283 283 282 281 281 280 280 279 279 278 277 277 277 277 276 276 276 276 276 276 276 276 276 276 276 275 276 275 275 275 275 275 275 275 275 275 276 276 276 276 275 275 276 276 276 276 276 276 276 276 277
286 286 285 285 284 284 283 283 283 283 283 283 283 282 281 280 279 279 278 278 278 277 277 276 276 276 276 275 275 275 275 275 275 275 275 274 275 275 274 274 274 275 275 275 275 275 275 275 275 275 275 274 274 274 275 275 275 274 274 274 274 274
285 285 284 284 284 283 283 283 282 282 282 282 282 281 280 280 279 279 278 277 277 277 276 276 276 275 275 275 275 275 275 275 275 275 274 274 274 274 274 274 274 274 274 274 274 274 273 273 273 273 273 272 272 272 272 273 273 272 272 272 272 272
285 284 283 283 283 282 282 282 282 282 282 281 281 280 279 279 278 278 277 277 276 276 276 275 275 275 274 274 275 274 274 274 274 274 273 273 273 273 273 273 273 273 272 272 272 272 272 271 271 271 271 271 271 270 270 271 271 271 271 271 271 271
283 283 283 283 282 282 282 282 282 281 281 281 280 280 279 278 278 277 277 276 275 275 275 275 275 274 274 274 274 274 274 273 273 273 272 272 272 272 272 272 272 271 271 270 270 270 270 270 270 269 269 269 270 269 269 269 269 270 270 270 270 271
283 283 283 282 282 282 281 281 281 281 281 280 280 279 278 277 277 277 276 276 275 274 274 274 274 274 274 274 273 273 273 273 272 272 272 271 271 270 270 270 270 270 269 269 269 269 269 269 269 269 268 269 269 269 269 269 269 269 269 269 269 269
283 283 283 282 282 282 281 281 281 280 280 279 279 278 277 277 276 276 275 275 274 274 274 274 274 274 273 273 273 273 272 272 271 270 270 270 269 268 268 269 268 268 268 268 268 268 268 268 268 268 268 268 268 269 268 268 269 269 268 268 269 269
283 282 282 282 281 281 281 281 281 280 279 278 278 277 277 276 275 275 274 274 274 274 274 274 274 273 273 273 272 271 271 270 269 269 269 268 267 267 267 267 267 267 267 267 268 268 268 268 268 268 268 268 268 268 268 268 268 268 268 268 269 269
283 283 282 282 281 281 280 280 280 280 279 278 277 276 276 275 275 274 274 273 273 274 274 273 273 272 272 271 271 270 269 268 268 267 267 266 266 266 266 266 266 266 266 267 267 268 268 268 268 268 268 268 268 269 269 269 269 270 269 270 270 270
284 283 282 281 281 280 280 280 279 279 278 277 276 276 275 275 274 273 273 273 273 273 273 272 272 271 271 270 269 269 268 267 266 266 265 265 265 266 266 266 266 266 266 267 267 268 268 268 268 269 271 272 270 270 270 270 270 270 270 269 269 270
284 283 282 281 281 280 280 280 279 278 278 276 275 275 274 274 273 273 273 273 273 272 272 271 271 270 269 269 268 267 266 265 265 264 264 264 264 264 265 265 266 266 267 267 267 267 267 268 268 270 272 273 274 272 270 269 270 270 270 270 270 269
284 283 282 282 281 280 280 279 278 278 277 276 275 274 273 273 273 272 272 273 272 271 271 271 270 269 268 267 266 265 265 264 263 263 264 264 264 264 265 265 266 266 267 267 267 267 267 267 269 271 272 273 274 274 271 271 270 270 270 270 270 270
284 284 283 282 281 280 280 279 278 277 276 275 275 273 272 272 272 272 271 271 271 270 270 269 268 267 266 266 265 264 263 263 263 263 263 263 264 264 264 265 265 266 266 266 266 266 266 267 269 271 272 273 274 275 274 271 271 271 271 271 271 271
285 285 284 283 282 281 281 279 278 277 276 275 273 272 271 271 271 271 270 270 270 269 269 267 267 266 266 265 264 263 263 262 262 263 264 264 264 264 264 265 265 265 265 266 265 266 266 266 268 271 273 273 274 275 274 272 271 271 271 271 271 271
286 284 283 282 281 281 279 278 278 276 274 273 272 271 270 270 270 270 270 269 269 268 267 266 266 265 265 264 263 262 262 262 263 263 264 264 264 264 264 264 264 264 264 264 265 265 265 266 270 272 273 273 274 275 275 271 271 270 270 271 271 271
285 284 283 282 281 279 278 277 276 275 273 272 271 270 270 270 269 269 269 268 268 267 266 265 265 264 263 263 262 262 262 263 263 262 263 263 264 264 265 264 264 264 264 264 264 264 264 266 270 271 272 273 274 275 271 271 271 271 271 271 271 271
285 284 282 281 280 278 277 276 274 273 271 270 269 269 269 269 269 268 268 267 267 266 266 265 264 263 262 262 261 261 261 262 262 263 264 263 263 263 263 263 264 264 264 264 264 264 264 265 268 271 272 273 274 273 271 271 271 270 270 270 271 271
285 283 282 280 278 277 275 274 273 271 269 269 269 268 268 268 268 268 267 266 266 265 264 264 263 262 262 261 261 261 262 262 263 263 263 262 262 263 263 263 263 264 264 264 264 264 264 265 268 271 273 273 274 274 271 271 270 270 270 270 271 271
283 281 279 277 275 274 273 272 271 270 269 269 268 268 267 267 268 267 266 266 265 265 263 263 262 262 261 260 261 261 260 261 262 262 263 263 263 263 263 263 263 263 264 264 264 266 266 266 268 271 272 273 275 273 271 271 270 270 270 270 270 271
279 278 277 276 275 273 272 272 271 270 269 268 268 267 267 267 267 267 266 266 264 263 262 262 261 261 260 260 260 260 261 262 262 262 262 262 263 263 263 263 263 262 263 264 265 266 267 267 268 269 273 274 275 275 272 272 271 270 270 271 271 270
279 278 277 276 273 271 271 271 270 269 269 268 267 267 268 268 267 265 265 264 262 262 261 261 260 259 260 260 260 261 261 262 262 261 261 261 262 262 262 261 262 263 264 265 267 267 267 268 268 269 273 274 275 275 275 272 272 272 271 271 271 271
276 276 275 274 272 271 270 270 269 269 268 267 267 268 268 266 265 264 263 262 261 260 260 260 260 259 259 259 260 260 260 261 260 260 260 262 261 260 260 261 262 263 264 266 267 267 268 269 270 269 272 274 274 275 276 273 272 273 272 271 270 270
275 274 273 272 271 270 270 270 269 268 267 267 267 266 265 264 263 262 262 261 259 259 258 259 258 259 259 259 259 259 259 260 260 259 260 260 260 260 261 262 263 264 264 265 266 267 268 268 269 271 271 273 274 276 276 276 274 276 272 270 269 269
274 272 270 269 269 269 270 270 269 267 267 267 264 263 262 262 261 261 260 258 258 258 258 258 258 259 259 259 259 259 259 259 259 260 261 260 261 261 262 263 263 264 264 264 265 266 267 268 269 271 272 272 274 275 276 276 276 275 272 271 270 270
272 270 268 268 268 268 269 270 268 267 266 264 263 262 261 260 260 259 258 258 258 258 258 258 259 259 258 258 259 259 260 258 259 260 261 260 261 262 262 262 263 263 264 265 265 265 266 268 268 269 271 273 274 275 275 275 275 274 274 270 270 271
270 268 266 266 267 267 268 269 268 266 265 262 262 261 260 259 258 258 257 257 257 257 257 257 257 257 257 258 259 259 260 259 260 260 261 261 262 262 262 262 263 264 264 264 265 265 266 267 268 269 269 271 272 272 273 273 273 272 273 272 271 273
268 266 266 265 266 267 267 267 268 266 263 261 261 260 259 258 258 257 257 257 257 256 257 258 259 258 257 257 259 259 259 260 260 260 260 261 262 262 262 262 264 264 264 264 264 265 266 266 267 268 269 270 270 270 270 269 268 271 271 269 269 270
267 266 265 264 265 266 266 266 264 263 262 261 260 259 258 258 258 257 257 257 257 257 257 258 257 257 258 258 258 259 260 260 260 260 261 261 261 261 262 264 264 264 264 264 265 265 265 266 267 267 268 269 269 269 269 268 267 267 267 267 268 268
267 266 265 264 265 264 264 263 261 261 261 260 258 258 258 258 257 257 256 257 257 257 257 257 257 258 258 257 257 258 259 259 259 260 261 262 263 264 264 265 265 265 265 265 265 265 264 266 266 267 272 270 272 270 268 267 267 267 267 269 272 267
267 266 265 264 264 263 262 260 260 260 260 258 258 258 258 257 256 256 257 257 258 257 257 257 256 256 256 257 258 258 258 259 262 262 262 262 266 267 268 268 266 266 266 266 266 267 266 266 267 272 273 272 272 272 272 271 271 271 269 270 270 267
266 265 264 263 262 262 260 259 259 258 258 258 258 258 257 257 257 257 257 257 257 257 257 257 257 257 257 257 257 257 258 259 260 263 264 266 266 266 267 268 268 268 269 267 266 267 270 271 272 272 272 272 272 272 271 271 270 270 271 270 265 263
265 264 263 262 261 260 259 258 258 257 257 258 258 258 257 257 258 257 257 258 257 257 257 258 257 257 257 257 257 257 258 258 259 260 264 265 264 266 266 267 267 268 268 269 268 267 266 269 270 271 271 271 271 271 271 270 269 269 270 269 266 261
265 264 263 262 260 259 258 258 257 257 257 257 257 257 257 258 259 258 257 257 257 256 256 257 257 257 257 256 256 256 257 257 257 258 258 260 263 264 265 266 266 267 267 268 268 269 269 270 270 270 270 270 270 270 270 269 268 268 269 267 261 260
265 263 262 261 259 259 258 257 257 257 257 257 257 257 258 258 258 257 257 257 257 257 257 257 256 256 256 256 256 256 256 256 255 254 254 255 256 258 260 263 264 265 266 266 267 268 269 269 269 269 269 269 269 269 269 267 263 266 266 264 259 259
264 262 261 260 259 258 257 257 256 257 256 256 256 257 257 257 257 256 256 255 256 257 257 257 257 256 255 255 255 255 255 255 254 254 254 254 253 253 254 255 256 260 264 263 264 266 268 268 268 268 268 268 269 269 267 264 260 259 259 259 259 259
263 261 260 259 258 258 257 257 256 256 256 256 256 256 256 256 256 256 256 256 255 256 256 255 255 255 255 255 255 255 255 254 255 254 253 253 253 252 253 254 255 255 258 263 264 266 266 267 267 267 267 267 267 267 265 258 258 258 258 258 258 258

ECMWFFLT1_sfc_thetae_009.txt.gz
Theta_e
291 290 289 289 288 288 288 288 288 288 288 288 288 287 286 286 286 286 285 285 285 284 283 283 282 282 282 282 282 281 280 280 280 280 280 281 280 280 280 279 279 279 279 279 279 279 279 279 279 279 279 279 278 278 278 279 279 278 278 279 279 279
291 290 289 288 288 287 287 287 287 287 287 287 287 287 286 286 285 285 284 284 284 283 283 282 282 282 281 281 280 279 279 279 279 279 279 279 279 279 279 279 278 278 278 278 278 278 278 278 278 278 278 278 278 278 278 278 278 277 277 277 278 279
291 290 290 289 289 288 288 287 287 287 287 287 287 286 285 285 285 285 284 284 283 282 281 281 281 280 280 279 279 279 279 279 279 279 279 279 278 278 278 278 278 277 277 277 277 277 277 277 277 277 277 277 276 277 277 276 276 276 276 276 276 277
291 290 290 289 288 287 287 287 287 286 286 286 287 286 285 284 284 284 283 283 282 281 281 280 280 280 279 279 279 278 278 278 278 278 278 277 277 277 277 277 277 277 276 276 276 276 276 276 276 276 276 275 275 275 275 275 275 274 274 274 274 275
290 289 288 288 287 287 286 286 286 286 286 286 286 285 285 285 284 284 283 281 281 281 280 280 279 279 278 278 278 278 278 278 278 278 277 277 277 277 276 276 276 276 276 276 276 276 275 275 275 275 274 274 273 273 273 273 273 272 272 272 273 273
290 289 288 287 286 286 286 286 286 286 286 285 286 285 285 284 283 283 281 281 280 280 279 279 279 278 278 277 278 277 277 277 277 277 276 276 276 275 276 276 275 275 275 274 274 274 274 274 273 273 273 273 272 272 271 272 271 271 271 271 271 271
288 288 287 287 286 286 286 286 285 285 285 285 285 285 285 283 283 281 281 280 280 279 279 278 278 277 277 277 277 277 277 277 276 276 276 275 275 275 275 275 275 274 273 273 273 273 272 272 272 272 271 271 271 271 271 271 270 270 270 270 270 271
288 288 287 287 286 286 286 286 285 285 285 285 285 285 284 282 282 281 280 280 279 278 278 278 277 277 277 277 277 277 277 276 276 275 275 275 274 274 274 273 273 273 272 272 272 271 271 271 271 271 270 270 271 270 270 270 270 270 270 270 270 270
288 288 287 287 286 286 286 285 285 285 285 284 285 284 283 282 281 280 280 279 279 278 278 277 277 277 277 277 277 276 276 275 275 275 274 274 273 272 272 272 271 272 271 271 271 270 270 270 270 270 270 270 270 270 270 270 270 270 270 270 271 271
289 288 287 287 286 286 285 285 285 284 284 284 284 283 282 281 280 280 279 279 278 278 277 277 277 277 277 277 276 276 275 275 274 273 273 272 271 271 270 270 270 270 270 270 270 270 270 270 270 270 270 270 270 270 270 270 270 270 270 271 271 271
289 288 287 287 286 285 285 285 285 284 284 284 283 282 281 281 280 279 279 278 278 277 278 277 277 277 276 276 275 274 274 273 272 272 271 270 270 270 270 269 269 269 269 269 269 269 270 269 269 270 270 270 270 270 270 271 271 271 271 271 271 271
291 289 288 287 286 285 285 284 284 284 283 283 282 281 281 280 279 278 278 278 278 277 277 277 276 275 275 274 273 273 272 272 271 270 269 269 269 268 268 268 268 268 268 268 269 269 269 269 270 271 272 273 271 271 272 272 272 272 271 271 271 271
293 292 290 287 286 286 285 284 284 284 283 283 282 281 280 280 278 278 278 277 277 277 276 275 275 274 273 273 273 272 271 270 269 268 268 268 267 267 267 267 267 267 268 268 269 269 269 269 270 272 273 274 275 273 272 272 272 272 272 272 272 271
294 293 291 289 287 286 285 284 284 283 282 282 281 280 279 279 278 277 277 277 277 276 275 274 274 273 272 272 271 270 269 268 267 267 266 266 266 266 267 267 267 268 268 268 268 268 269 269 271 272 273 274 275 275 273 273 273 272 272 272 272 272
294 293 292 291 288 286 285 284 283 282 282 281 280 279 278 278 277 277 277 276 275 275 274 274 272 272 271 270 269 268 267 266 266 265 265 265 266 266 266 266 267 268 268 268 268 268 268 268 271 272 273 274 275 276 275 273 273 272 272 272 272 272
296 294 293 292 289 287 286 285 283 283 282 281 279 278 277 277 277 277 276 275 274 274 273 272 271 270 270 269 268 267 266 265 265 265 266 266 266 266 266 267 267 267 267 267 267 267 267 268 270 272 273 274 275 276 276 273 273 272 272 272 271 271
297 294 291 290 288 286 285 284 283 282 281 279 278 277 277 276 276 276 275 274 273 272 272 271 270 269 268 267 266 266 265 265 265 265 266 266 266 266 266 266 266 266 266 266 266 266 266 267 270 272 273 274 275 276 276 273 272 272 271 272 272 272
296 293 291 289 287 285 284 283 282 281 279 278 277 276 276 276 275 274 274 273 271 271 271 270 269 268 267 266 265 265 265 265 265 265 266 266 266 267 267 266 267 266 265 266 266 266 265 267 270 272 273 274 275 276 273 272 272 272 272 272 272 273
294 292 290 287 286 284 283 282 281 279 277 277 276 276 275 275 274 273 272 271 271 270 270 269 268 267 266 265 264 264 264 265 265 265 266 265 266 266 266 266 266 266 266 265 265 265 265 266 268 271 273 274 275 274 272 272 272 272 271 272 273 273
291 290 288 286 284 284 283 281 280 278 277 276 275 275 274 274 273 273 272 271 270 270 269 269 267 266 265 264 264 264 265 265 265 265 266 265 265 265 265 265 265 265 266 265 265 265 265 265 268 272 273 274 275 275 272 272 271 271 272 272 273 273
290 288 287 285 283 283 281 280 279 277 276 275 274 274 273 273 273 272 271 270 269 268 268 267 267 266 265 264 264 264 264 264 264 265 265 265 265 265 265 265 265 265 265 265 265 267 267 267 269 271 273 274 275 274 272 272 271 271 271 272 272 273
287 285 286 284 284 282 280 279 278 276 275 274 273 273 272 273 272 271 270 268 267 267 266 266 266 265 264 264 264 264 264 264 264 264 264 264 265 265 265 265 265 264 264 265 266 266 267 267 268 269 273 274 274 275 273 272 271 271 271 272 272 272
287 286 286 285 283 281 280 278 277 276 274 273 272 272 272 272 270 269 268 267 265 265 265 265 265 264 264 264 263 263 263 264 264 264 264 263 264 264 264 263 263 263 264 266 267 267 267 268 268 269 272 273 274 275 275 272 272 272 272 271 271 271
285 285 284 283 281 279 278 277 276 275 274 273 272 273 272 270 269 268 266 265 264 264 263 263 263 263 263 263 263 262 262 264 264 263 263 263 264 262 261 262 264 264 265 266 267 267 268 269 270 269 271 273 274 275 276 273 272 273 272 271 270 270
284 284 283 280 279 278 278 277 275 274 273 272 272 272 270 269 267 266 265 264 263 263 262 262 261 261 261 262 262 262 262 263 261 261 262 262 262 262 262 263 264 264 265 265 267 267 268 268 269 271 270 272 274 275 275 276 274 276 273 270 269 269
284 283 280 278 278 277 277 276 274 273 272 272 271 270 268 267 266 265 264 262 262 261 261 261 261 261 261 261 262 262 262 262 261 261 262 262 262 263 263 265 265 265 265 265 266 267 268 268 269 270 271 271 273 274 275 275 275 275 272 271 269 269
283 280 277 276 276 276 276 276 274 272 271 271 269 268 266 265 264 263 262 261 261 260 260 260 260 261 260 261 261 261 261 261 261 261 263 262 263 264 264 264 264 265 265 265 265 266 267 268 268 268 270 272 273 274 274 275 275 275 274 270 269 269
280 278 275 275 275 275 275 276 275 271 272 269 267 267 266 264 263 262 261 261 260 260 260 260 260 260 260 261 261 262 262 261 261 262 263 263 264 264 263 264 265 265 265 265 265 266 266 267 267 268 269 270 271 272 273 274 274 273 273 272 270 272
277 275 274 273 273 274 274 275 274 273 269 267 267 266 264 263 263 262 261 260 260 260 260 260 260 260 260 260 261 262 263 263 263 263 263 264 264 264 264 264 265 265 265 264 265 265 266 266 267 268 268 269 270 270 270 270 270 272 271 269 268 270
277 275 273 272 272 273 273 274 273 270 267 267 266 264 263 263 262 261 260 260 259 259 260 260 260 259 259 260 261 261 262 262 263 263 264 264 264 263 264 264 265 265 264 264 265 265 265 265 266 267 268 269 269 269 270 270 269 269 268 268 268 268
277 275 273 272 272 272 273 273 271 267 266 265 263 263 263 263 262 261 260 259 259 259 260 261 260 261 260 260 261 262 263 262 262 264 264 264 265 265 265 265 265 265 265 265 265 264 264 265 266 267 272 270 272 270 269 269 269 268 268 269 272 267
277 275 273 272 271 271 271 271 267 266 266 264 263 263 262 262 261 260 259 259 259 260 260 260 260 261 260 260 260 260 260 263 265 265 263 263 267 269 269 269 266 266 266 266 266 267 265 265 267 271 272 272 272 273 273 272 272 271 270 271 271 267
276 275 272 271 270 270 270 269 265 265 264 263 263 263 263 261 260 260 260 260 259 260 259 260 259 260 261 261 261 261 260 261 263 267 268 268 268 268 269 269 269 269 269 268 266 267 269 270 271 271 271 271 272 272 272 272 271 270 271 271 266 262
274 273 272 270 269 270 269 266 264 264 263 262 263 263 262 262 261 260 260 260 260 260 260 260 260 260 260 261 261 262 261 261 261 263 267 268 268 269 269 268 268 268 268 269 268 267 267 269 270 271 271 271 271 271 271 271 270 270 270 270 268 261
275 274 273 271 269 269 267 265 264 263 262 261 263 263 262 262 262 261 260 260 260 260 260 260 260 260 260 260 260 261 262 262 262 262 263 265 266 268 268 267 268 268 268 268 268 269 269 269 270 270 270 270 270 271 270 270 269 269 269 268 262 260
276 274 272 269 268 268 266 264 263 261 261 261 262 262 263 263 262 262 261 260 260 260 260 260 260 260 260 260 261 261 261 261 262 262 262 260 261 263 265 265 266 266 266 267 267 268 268 269 269 269 269 269 269 270 269 268 264 267 268 265 260 259
276 273 270 268 267 266 264 263 261 260 261 261 262 262 263 263 263 262 261 260 261 261 261 261 261 260 260 259 259 259 259 258 258 258 259 259 259 259 258 257 258 262 265 264 264 267 268 268 269 268 268 269 269 268 267 264 260 259 259 260 259 259
273 272 269 267 266 265 263 261 261 260 260 260 261 263 263 262 262 261 260 260 261 261 261 260 260 260 259 259 259 259 259 258 258 257 256 256 256 256 255 256 256 256 260 263 264 266 266 267 268 268 267 267 267 267 264 257 257 257 257 258 258 258

ECMWFFLT1_sfc_thetae_015.txt.gz
Theta_e
287 286 286 286 285 284 284 284 284 284 285 285 285 285 286 286 286 285 286 285 286 285 285 284 284 284 284 284 283 282 282 281 281 280 280 280 280 280 279 278 278 278 277 277 277 277 277 277 277 277 276 276 276 275 276 275 275 275 275 275 276 276
287 287 287 286 285 285 284 283 283 284 284 284 285 285 284 284 285 285 285 285 285 285 284 283 284 284 284 283 282 282 282 281 280 280 279 279 279 279 279 278 278 277 277 277 277 276 276 276 276 276 276 275 275 275 275 275 275 275 275 274 275 276
287 287 287 287 284 283 283 283 283 284 284 284 284 284 284 284 285 285 285 285 284 284 283 283 283 283 283 282 282 282 281 281 280 280 279 279 278 278 278 277 277 277 277 276 276 276 276 275 275 276 275 275 274 274 275 274 274 274 274 274 274 274
286 286 285 283 283 283 283 283 283 282 283 284 284 284 284 284 284 284 285 284 284 283 283 282 282 282 282 281 281 281 280 280 280 279 278 278 278 278 277 277 277 276 276 276 276 275 275 275 275 275 275 274 274 274 274 274 274 274 273 273 273 273
287 287 286 285 285 285 284 283 283 283 283 284 284 284 284 284 285 284 284 283 283 283 283 282 281 281 281 280 280 280 280 279 278 278 278 278 277 277 277 276 276 276 276 275 275 275 275 274 274 274 274 274 274 273 273 274 273 273 272 272 272 272
285 284 284 284 284 284 284 284 284 284 283 283 284 283 284 284 284 284 283 283 283 283 282 281 281 280 280 280 280 279 279 278 278 278 278 277 276 276 276 276 276 275 275 275 274 274 274 274 274 274 274 273 273 273 273 273 272 272 272 272 271 271
285 286 286 285 285 285 284 284 284 283 283 283 283 284 284 284 283 283 283 283 282 282 281 281 280 280 279 279 279 278 277 277 277 277 277 276 276 275 275 275 275 275 274 274 274 273 273 273 273 273 273 272 272 272 272 272 272 271 271 271 271 271
287 287 286 286 285 285 284 284 284 283 283 283 283 283 283 283 283 283 282 282 282 281 281 280 279 279 279 278 278 277 277 276 276 276 276 276 275 274 275 274 274 274 274 273 273 273 273 273 273 272 272 271 271 271 271 271 271 271 270 270 270 270
288 288 288 287 286 285 285 284 284 283 283 282 282 283 283 283 282 282 282 281 281 281 280 280 279 279 278 278 277 276 276 276 276 275 275 275 274 274 273 273 273 273 273 272 272 272 272 272 271 270 270 270 269 270 270 270 270 270 270 270 270 270
291 289 288 287 287 286 284 284 283 283 283 282 282 282 282 282 282 281 281 281 281 281 280 280 279 279 278 278 276 276 275 275 275 275 274 274 273 273 273 272 272 272 272 271 271 271 271 270 270 269 269 269 269 269 270 270 270 270 270 270 270 270
291 291 289 288 286 285 284 283 282 282 282 282 281 281 282 282 281 281 281 281 281 281 280 280 279 278 278 277 276 275 275 274 274 274 273 273 273 273 272 272 272 271 271 270 270 270 270 270 270 269 269 268 269 269 269 269 269 270 269 270 270 271
291 291 290 288 286 285 284 283 282 282 282 282 281 281 281 281 281 281 281 281 281 281 280 279 278 277 277 276 275 275 274 274 273 273 272 272 272 272 271 271 271 270 270 269 269 270 270 270 270 272 274 272 269 269 269 269 270 270 270 270 271 272
291 290 289 288 287 286 285 285 284 283 282 282 281 281 281 281 281 281 281 280 280 280 279 278 277 276 276 276 275 274 274 273 273 272 272 271 271 270 270 270 270 269 269 269 269 269 269 270 270 274 275 276 275 271 269 269 270 270 271 272 272 272
290 289 289 289 289 287 286 285 285 283 282 282 282 281 281 281 281 280 280 280 279 279 278 277 276 276 275 275 274 274 273 273 272 272 271 270 269 269 269 269 269 269 269 269 269 269 269 269 272 275 276 277 277 275 270 271 271 272 273 273 273 273
289 290 291 291 290 290 288 287 286 284 284 283 283 281 280 280 280 280 280 279 278 278 277 277 276 275 275 274 274 273 273 272 271 270 269 269 269 268 268 269 269 269 269 269 269 269 269 269 274 276 277 277 277 278 276 274 274 273 273 274 274 273
290 290 291 291 292 291 291 289 288 287 286 284 281 281 280 280 280 279 279 278 278 277 277 276 276 275 275 274 273 273 272 271 271 270 269 268 268 268 269 269 269 269 269 269 269 269 270 269 273 276 277 277 277 278 278 275 274 274 274 274 274 273
289 290 290 290 291 290 289 288 287 286 282 281 281 281 280 280 280 279 279 278 278 277 277 276 276 275 274 273 273 272 271 271 270 269 269 268 268 268 268 267 267 268 268 268 269 269 269 269 274 276 276 276 277 277 277 275 274 274 273 273 272 272
290 290 291 292 291 289 288 289 288 285 284 282 281 280 280 280 279 279 279 278 278 277 277 276 275 275 273 272 271 271 271 270 270 269 268 268 267 267 267 268 268 267 268 269 269 269 268 269 274 275 275 276 277 277 275 274 274 272 272 271 272 272
290 290 290 290 290 289 289 288 285 284 282 280 281 280 280 279 279 279 278 278 278 277 277 276 275 274 272 272 271 270 270 270 269 268 268 267 267 267 267 267 267 268 268 269 268 268 268 268 272 275 275 276 277 276 274 273 272 272 272 272 272 272
289 289 287 288 289 289 288 284 284 282 281 280 279 279 279 279 279 279 278 278 278 277 276 276 275 274 272 271 271 271 271 270 269 268 268 267 266 267 267 268 268 268 268 268 268 268 267 267 270 274 275 275 276 276 273 273 272 271 271 271 272 272
287 287 285 284 285 284 281 282 282 281 280 279 279 279 278 278 279 279 279 279 278 277 276 275 274 274 272 271 271 271 270 269 268 268 268 268 268 267 268 268 267 267 267 268 267 269 267 267 269 273 274 275 276 275 273 272 270 270 271 271 271 272
286 286 284 283 283 279 279 279 280 280 280 278 277 277 278 278 279 280 279 278 277 276 275 275 274 274 272 271 271 270 269 269 267 267 267 267 267 267 267 267 267 266 266 267 267 268 268 267 267 269 274 275 276 276 273 271 271 270 270 271 271 271
285 284 283 283 280 279 279 279 279 280 279 277 277 277 279 279 278 278 278 277 276 275 275 275 274 273 272 271 270 269 268 268 267 267 266 266 266 266 266 266 266 266 266 266 267 267 268 268 267 269 273 275 275 276 275 272 271 271 271 271 271 272
286 285 283 279 279 279 280 280 280 279 278 277 277 279 278 277 277 276 276 275 275 274 274 273 273 272 271 270 269 268 267 267 267 267 266 266 266 265 265 265 265 265 265 266 266 266 266 268 270 267 272 274 275 275 276 273 272 273 272 271 271 271
287 287 286 281 279 280 280 281 281 280 278 278 279 277 275 274 275 275 274 273 273 272 272 272 271 270 270 269 268 267 266 266 265 266 266 265 265 265 264 265 265 264 264 265 265 266 267 267 269 271 270 273 274 275 275 275 274 275 274 272 270 271
287 287 286 280 278 280 282 281 282 281 279 280 277 276 274 274 274 273 272 271 271 271 271 270 270 269 269 268 268 267 266 265 265 265 265 265 265 264 264 264 264 264 264 264 265 266 267 268 268 271 272 271 274 274 275 275 275 275 273 273 271 271
286 287 285 282 278 278 280 281 282 281 280 281 277 276 275 274 273 272 271 271 270 270 270 269 269 268 268 267 267 266 266 265 264 264 264 264 264 264 263 264 264 264 265 265 265 266 266 267 268 268 271 273 273 274 274 274 274 274 274 271 271 270
286 285 285 286 280 277 279 280 282 282 283 280 277 277 276 274 273 272 272 271 270 270 269 268 268 267 267 267 267 267 266 265 265 264 264 264 264 264 264 264 264 265 265 265 265 266 266 267 267 267 268 271 272 272 273 273 273 273 273 272 270 271
286 285 285 285 285 280 279 280 281 283 284 279 278 276 275 273 273 272 271 270 270 269 268 268 267 266 266 266 266 266 266 265 265 265 264 264 264 264 264 264 265 265 265 265 265 266 266 266 266 266 267 268 269 269 270 271 271 271 272 270 269 269
285 285 285 285 286 284 281 280 281 281 282 279 277 276 274 273 273 272 271 270 269 268 267 267 266 266 266 266 266 265 265 265 266 265 264 264 264 264 265 264 265 265 265 265 265 265 265 265 265 265 266 267 268 269 270 270 270 270 268 266 268 267
285 285 285 286 287 286 283 281 281 281 281 279 276 274 273 273 272 272 271 269 268 267 267 267 266 266 266 266 265 265 265 265 265 265 265 267 267 267 266 265 265 266 266 266 265 264 264 264 264 265 270 268 271 270 269 269 269 269 268 269 270 263
285 285 285 285 286 286 285 284 282 281 280 278 275 274 273 272 271 270 269 268 267 267 266 266 265 266 265 265 265 264 264 267 269 268 266 266 270 271 272 271 267 267 267 266 266 266 264 264 265 271 273 273 273 273 273 272 272 271 270 270 269 263
283 284 284 285 285 285 285 284 283 280 278 276 274 273 273 272 270 270 268 267 267 266 266 265 265 265 265 265 264 264 263 265 268 271 271 271 271 272 273 272 272 272 271 267 265 268 270 271 272 273 274 274 273 273 272 272 272 272 271 269 262 256
282 283 284 285 284 284 284 283 281 279 277 275 273 273 273 272 271 270 268 267 267 266 265 265 265 265 264 264 264 264 264 265 265 267 271 272 273 274 274 274 274 273 272 271 269 268 269 272 273 274 273 273 273 272 272 272 272 271 270 267 265 255
278 277 277 278 279 281 283 281 280 279 275 273 273 272 272 271 271 270 269 267 266 266 265 265 264 264 264 264 264 264 265 265 265 265 267 270 274 275 274 274 274 273 273 273 272 272 271 272 273 273 273 272 272 272 271 271 271 270 268 266 256 252
274 273 274 274 276 278 279 280 281 278 275 273 272 272 272 272 271 271 270 267 266 265 265 264 264 264 264 265 264 265 265 266 266 266 267 267 269 270 272 274 274 274 274 273 273 273 273 273 273 273 272 272 271 271 270 269 267 268 267 262 253 252
271 272 273 274 275 276 277 279 281 281 276 273 272 272 272 272 271 270 268 266 266 266 265 265 264 264 264 265 265 265 266 266 267 267 267 268 267 267 267 268 270 273 273 271 272 273 273 273 273 272 272 271 270 269 269 267 259 256 254 254 253 253
270 271 273 274 274 276 277 278 280 280 274 273 272 271 271 271 271 270 269 267 266 266 266 265 264 265 265 264 265 266 266 266 267 267 267 268 267 267 266 266 267 269 272 273 273 273 273 273 272 271 271 270 269 268 267 256 253 252 252 252 252 251

ECMWFFLT1_sfc_thetae_021.txt.gz
Theta_e
287 286 286 285 284 284 283 283 283 284 283 284 285 286 287 287 287 286 286 286 287 288 287 287 287 287 287 286 286 284 284 284 284 284 285 284 284 284 283 283 283 283 282 282 281 281 280 280 280 280 279 279 279 278 278 278 278 277 277 277 277 277
287 288 287 285 284 283 283 283 283 284 284 284 284 285 285 285 286 286 286 287 287 287 287 287 287 287 287 286 285 284 284 284 284 284 283 284 284 283 283 283 283 282 282 281 281 280 280 280 280 279 279 278 278 278 277 277 277 277 276 276 276 276
294 287 287 286 284 283 283 283 283 283 283 284 285 285 285 285 286 286 286 287 286 286 286 286 286 286 286 285 285 284 284 284 284 284 284 283 282 283 283 282 282 282 282 281 281 280 280 279 279 279 278 278 277 277 277 276 277 276 276 276 275 276
292 288 286 285 285 284 283 283 282 283 283 285 285 285 285 285 286 286 287 286 287 286 286 286 286 286 285 285 284 284 284 283 283 283 282 282 282 283 282 282 282 282 281 281 280 280 280 279 279 278 278 278 277 276 276 276 276 276 275 275 275 275
287 287 287 286 286 285 284 283 283 284 284 284 284 285 285 286 286 287 286 286 286 286 286 286 285 285 284 284 284 284 284 283 283 283 282 282 282 282 282 282 282 281 281 280 280 279 279 279 278 278 278 277 277 276 276 276 276 276 275 275 275 275
286 286 287 287 286 285 285 285 284 284 284 284 284 284 285 285 286 286 285 285 285 285 285 285 285 284 284 284 284 284 284 284 283 282 282 282 282 281 282 282 281 281 280 280 279 279 279 278 278 278 278 277 277 276 276 276 276 276 275 275 275 274
287 287 287 287 287 287 286 286 286 285 284 283 283 284 285 285 285 285 285 285 285 285 284 284 284 284 284 284 284 284 284 283 283 282 282 281 281 281 281 281 281 280 280 280 279 279 278 278 278 277 277 277 277 277 276 276 276 275 275 275 275 275
288 288 287 288 288 288 287 287 286 285 284 284 283 283 284 284 283 284 284 284 284 284 284 284 284 284 284 284 284 284 284 283 283 281 281 281 281 281 281 280 280 280 280 280 279 279 278 278 278 277 277 277 277 276 276 276 275 275 275 274 274 274
288 288 288 288 287 287 287 287 286 285 285 285 285 285 284 283 283 283 284 284 284 284 284 284 284 284 284 284 284 284 283 283 282 281 281 281 281 280 280 280 280 280 280 280 279 279 278 278 277 277 277 276 276 276 275 275 274 274 274 274 273 273
287 287 287 287 288 288 288 287 287 287 288 287 287 285 285 285 283 283 283 283 283 283 284 284 284 284 285 284 284 283 283 282 282 281 281 280 280 280 280 280 280 280 280 280 279 279 278 277 277 277 276 276 276 275 274 274 273 273 273 272 272 272
286 286 287 287 288 288 288 289 289 289 288 287 286 284 284 283 282 282 282 282 283 283 284 284 284 284 284 283 283 282 282 282 282 281 280 280 280 280 280 280 280 279 279 279 279 278 278 277 277 277 276 275 275 275 274 273 273 272 272 271 271 271
285 286 286 287 287 287 288 288 288 289 289 290 290 289 286 282 282 282 282 281 282 283 283 283 283 283 283 283 282 282 282 282 281 280 280 280 280 280 280 279 279 279 278 278 277 277 277 277 277 278 280 279 275 274 273 273 272 272 271 271 270 270
284 285 285 286 286 287 287 287 288 288 288 289 289 289 289 285 283 282 281 282 283 283 282 282 282 282 282 283 283 282 281 281 280 280 279 279 279 279 278 279 278 278 278 278 277 276 276 276 276 280 282 281 280 275 273 272 272 272 271 271 270 269
284 284 285 285 286 286 286 287 287 287 287 287 287 288 288 286 283 283 282 283 283 282 282 282 282 281 282 282 282 282 281 281 280 279 279 278 278 278 278 278 278 278 278 278 277 276 276 276 279 281 282 282 281 278 273 272 272 271 271 271 270 270
283 283 284 285 286 286 286 286 286 286 286 286 286 287 287 286 284 283 283 283 282 282 281 281 281 281 281 281 282 281 281 280 280 279 278 278 278 278 278 278 278 278 278 277 276 276 276 275 280 282 283 282 282 280 275 272 272 271 271 271 271 271
283 283 283 284 285 285 286 286 285 285 285 285 286 286 286 285 284 282 282 282 282 281 281 281 281 281 281 281 281 280 280 279 279 279 279 278 278 278 278 277 277 277 277 276 276 276 275 275 279 282 283 283 282 281 277 271 271 271 271 271 271 272
283 283 284 284 285 285 285 285 285 285 285 285 285 285 284 284 282 281 280 280 280 279 279 280 280 280 280 280 280 280 279 279 278 278 278 278 278 278 277 277 276 276 276 276 275 275 274 274 280 282 283 283 283 282 277 271 271 271 271 272 273 273
283 283 284 285 285 285 285 285 285 284 284 285 284 284 283 283 282 282 281 280 280 279 279 278 279 279 279 279 279 279 279 278 278 278 278 277 277 277 277 276 276 276 275 275 275 274 273 273 280 282 283 284 283 282 273 271 271 271 272 272 273 274
284 284 285 285 285 285 285 286 286 285 284 284 284 283 282 282 282 282 281 280 280 280 279 279 279 279 278 278 278 278 278 278 277 277 277 276 276 276 275 275 275 276 275 274 274 273 273 273 279 282 283 284 284 280 271 271 271 271 272 272 273 274
284 285 285 285 285 285 285 286 285 284 284 284 284 283 283 283 283 281 280 279 279 279 279 279 279 279 278 277 277 277 277 276 276 276 276 276 275 274 274 275 274 274 274 273 273 273 272 272 277 282 283 284 284 279 271 271 271 271 272 272 274 274
283 284 284 283 283 284 285 285 285 284 284 284 284 283 283 284 284 282 280 280 279 278 278 278 278 279 278 277 277 276 276 276 276 276 274 274 275 274 274 273 273 273 272 273 273 275 273 272 276 282 283 284 284 278 272 272 272 272 272 272 273 273
282 282 282 282 282 284 284 284 284 284 284 284 284 283 284 284 284 282 280 279 279 278 277 277 277 277 277 277 276 275 275 274 272 272 273 273 273 272 272 271 272 271 271 272 272 272 273 271 273 279 283 284 284 280 273 273 272 271 272 272 272 271
281 281 281 281 282 282 283 283 283 283 283 283 283 283 284 285 284 281 280 279 277 276 276 275 276 276 275 275 274 274 273 272 273 271 271 270 270 270 270 270 270 270 270 270 271 271 272 272 272 277 283 284 284 282 277 273 273 273 272 272 271 271
280 280 280 280 281 281 282 282 281 281 281 282 282 283 285 285 284 282 280 278 277 276 275 275 275 275 275 273 274 273 273 271 271 271 270 270 269 270 269 269 269 269 269 269 270 270 271 272 274 274 282 284 284 283 280 274 273 274 273 272 271 271
278 278 278 278 279 280 280 280 279 279 280 280 281 284 284 285 284 283 281 279 277 276 276 275 276 276 276 275 275 274 272 271 271 271 271 270 269 269 268 268 269 269 269 268 269 270 271 271 273 277 279 283 284 284 281 278 276 278 273 272 270 271
277 276 276 277 277 278 278 278 277 278 278 279 282 283 284 284 284 284 282 280 278 277 276 276 276 275 275 275 275 274 273 271 270 271 271 271 270 269 268 268 268 269 268 268 268 269 269 270 271 276 280 281 284 284 281 280 279 279 273 272 271 272
274 274 274 275 275 276 276 277 276 277 276 278 280 280 281 283 284 284 283 282 281 279 278 276 276 275 275 274 275 274 273 271 270 270 270 270 270 270 269 269 269 268 268 268 267 267 268 269 270 272 277 281 282 284 282 280 279 279 277 272 272 273
272 271 271 272 273 274 275 275 276 274 275 277 277 278 281 283 282 281 281 282 282 281 279 277 276 275 275 274 275 275 274 272 271 271 270 270 270 270 270 269 269 268 268 267 267 267 267 268 269 271 274 279 281 282 281 280 279 278 277 274 273 275
269 269 269 270 271 272 273 273 273 274 274 275 276 278 280 278 277 277 278 279 280 281 280 277 276 275 274 274 274 274 274 273 272 271 271 270 270 270 270 270 269 268 268 266 267 267 267 268 269 270 273 276 278 279 279 278 277 278 277 273 273 275
267 268 268 268 270 270 270 270 271 272 273 274 276 276 275 274 274 274 274 275 277 278 279 278 275 274 274 273 273 273 273 272 272 271 271 270 270 270 270 270 269 269 269 267 267 267 266 267 268 269 272 274 276 277 278 276 276 275 273 272 273 272
266 267 267 267 268 268 268 268 269 270 272 273 273 271 270 270 271 272 272 273 275 276 278 277 276 275 275 274 273 273 274 273 272 272 272 273 273 272 271 270 270 270 270 270 268 267 266 267 267 269 274 275 278 277 276 275 275 274 272 273 274 268
265 265 265 265 266 266 266 266 267 267 268 268 268 268 267 268 269 270 271 272 273 275 277 276 275 274 274 274 273 272 272 274 276 274 272 272 274 276 276 275 272 271 271 270 270 270 268 267 269 273 276 278 279 280 279 278 277 275 273 275 274 269
265 264 264 264 264 264 264 264 264 264 265 266 266 266 266 267 268 269 270 271 272 274 275 276 275 274 274 273 273 272 271 270 273 277 277 276 275 276 277 277 277 276 275 272 270 271 274 273 273 275 277 278 279 280 279 278 277 276 276 276 270 266
263 262 262 263 263 262 262 262 262 263 263 264 265 266 266 267 267 267 268 270 271 273 274 275 275 275 273 272 272 271 271 270 269 270 276 277 276 276 277 277 278 277 277 276 274 271 271 274 275 277 278 278 279 279 279 278 278 278 277 276 273 265
262 261 261 261 261 260 260 260 261 261 262 263 264 264 264 264 265 265 266 268 270 272 274 275 275 274 273 272 271 270 270 270 270 269 269 272 277 277 276 277 277 278 277 277 276 275 274 274 276 277 278 279 279 279 279 279 278 278 278 276 267 263
260 260 260 259 259 259 259 259 260 261 261 262 262 263 263 264 265 267 268 270 271 273 275 275 276 274 273 272 272 271 270 270 270 270 270 269 269 271 274 277 277 277 277 277 277 276 276 276 277 278 278 279 279 279 279 278 276 278 278 273 265 263
259 258 259 259 259 259 259 259 259 260 261 261 262 263 264 265 267 269 271 271 272 273 274 275 276 275 273 272 271 271 270 270 270 270 269 269 268 268 269 270 273 276 278 275 276 277 277 277 278 278 278 279 279 279 278 278 273 273 271 266 263 262
258 258 258 258 258 258 258 258 259 261 262 263 264 266 267 267 266 266 266 268 270 272 274 275 276 275 274 272 271 271 270 270 270 269 269 269 269 269 269 270 271 273 276 278 277 277 277 278 278 278 279 278 279 278 278 272 270 268 265 262 261 260

ECMWFFLT1_sfc_thetae_024.txt.gz
Theta_e
292 289 288 287 287 285 284 283 282 282 282 283 284 284 285 284 285 284 285 286 287 288 287 287 287 287 287 286 284 283 284 284 285 285 286 285 285 285 285 284 284 284 284 283 283 282 281 281 281 281 280 280 280 279 279 278 278 278 278 277 278 277
290 288 288 287 287 286 285 283 282 281 281 282 283 284 283 284 284 284 285 286 286 287 285 286 287 287 286 286 285 284 284 285 284 284 283 285 285 284 284 284 284 284 283 283 283 282 281 281 281 280 280 280 280 279 279 278 278 278 277 277 277 277
288 288 288 287 287 286 285 284 283 282 282 281 281 282 283 283 284 284 284 284 285 285 285 286 286 286 285 284 284 285 284 284 284 284 285 283 284 284 284 284 284 284 284 283 283 282 281 281 280 280 280 280 279 279 279 278 278 278 277 277 276 277
287 287 288 288 288 287 287 286 285 283 282 281 282 282 281 282 283 283 284 284 285 285 285 285 284 284 284 284 284 284 284 284 284 284 283 283 284 284 284 284 284 284 283 283 282 282 281 281 281 280 280 279 279 278 278 278 277 277 277 277 276 276
285 286 286 286 287 287 287 287 287 285 284 283 282 282 283 282 283 283 284 284 284 285 285 284 284 284 284 284 284 284 285 284 284 284 284 284 284 284 284 284 284 284 283 283 282 282 281 281 281 280 280 280 279 278 278 278 278 277 277 276 276 276
285 286 285 286 286 287 287 288 288 288 287 286 283 282 283 282 283 283 283 283 284 284 284 284 284 284 284 284 285 285 285 285 285 284 284 284 284 283 283 284 284 283 283 282 282 282 281 281 281 280 280 280 279 279 278 278 277 278 277 277 277 276
284 285 285 285 286 286 287 287 288 288 288 288 287 286 284 283 282 282 283 283 283 284 284 284 284 284 284 284 285 285 285 285 285 284 284 283 283 283 283 283 283 283 282 282 282 281 281 281 281 280 279 279 279 279 278 278 277 278 278 277 277 278
284 285 285 286 286 286 286 286 287 287 287 288 288 288 288 286 283 282 282 283 283 283 283 284 284 284 284 285 285 285 285 286 285 284 283 283 283 282 282 282 282 283 282 282 282 282 281 281 280 280 279 279 279 279 278 278 277 277 277 277 277 277
283 284 285 285 285 285 285 285 286 286 286 286 287 287 288 288 287 286 282 282 282 282 283 283 283 284 284 285 285 286 285 285 284 284 283 283 283 282 282 282 282 282 283 282 282 282 281 281 280 280 279 279 278 278 278 277 277 277 277 277 276 276
283 283 283 284 285 285 285 285 285 285 285 285 285 286 286 287 287 286 286 286 284 283 283 283 284 284 284 285 285 285 285 284 284 284 284 283 282 282 282 282 282 282 282 282 282 282 281 280 280 279 279 279 278 278 277 277 277 276 276 276 275 275
282 282 282 283 284 284 284 285 285 285 285 284 285 285 285 286 286 286 285 284 284 284 285 284 284 285 285 285 284 284 284 284 284 284 284 283 282 283 282 282 282 281 281 281 281 281 281 280 280 279 279 278 278 278 277 277 277 276 275 275 274 275
282 282 282 282 283 283 283 284 284 284 284 284 284 284 285 285 285 285 285 284 284 284 284 283 283 284 284 284 284 284 284 284 283 283 283 282 282 282 282 281 281 281 281 281 281 281 281 280 280 281 283 282 278 277 277 277 276 276 275 274 274 273
281 282 282 282 282 283 283 283 284 284 284 284 284 284 285 285 284 284 284 284 284 284 283 283 282 282 283 283 284 284 284 284 283 283 282 282 281 281 280 280 280 280 281 281 280 280 280 280 280 283 284 284 284 279 277 276 276 275 275 274 273 273
281 281 281 282 282 283 283 283 283 283 283 284 284 284 285 285 284 284 284 284 284 284 283 282 282 281 281 282 282 283 284 283 283 282 282 281 280 280 280 280 280 280 280 280 280 280 280 280 282 284 285 285 285 282 278 277 276 275 275 274 274 273
281 282 282 282 283 283 284 284 283 283 283 283 284 284 284 284 284 283 284 284 284 284 284 282 281 281 280 281 281 281 281 281 281 281 281 280 281 280 280 280 280 280 280 280 280 279 280 279 283 284 285 285 285 284 280 277 276 275 275 274 274 273
282 283 283 283 283 284 284 284 284 284 284 284 284 284 284 284 284 283 283 284 284 284 283 283 282 280 280 279 279 279 279 279 280 281 281 280 280 279 280 280 279 280 279 279 279 279 279 279 282 284 285 285 286 285 282 277 276 275 275 274 274 273
282 282 283 283 284 284 284 283 283 283 283 284 284 284 284 284 284 283 283 283 283 283 283 282 281 281 280 279 278 277 277 278 279 279 279 279 280 280 279 279 279 279 279 279 279 279 279 278 282 284 285 285 286 286 283 276 275 275 274 274 274 273
281 282 282 283 283 283 282 282 283 282 282 284 283 284 284 284 283 283 284 283 283 283 283 282 281 280 280 279 278 276 277 277 277 278 278 278 278 279 279 279 279 279 279 279 279 278 278 278 282 284 285 286 286 286 280 275 274 274 273 273 273 273
282 282 282 282 282 282 282 282 282 281 282 282 282 282 282 282 282 283 283 283 283 283 283 282 281 280 280 279 278 277 277 277 277 277 277 276 277 278 278 279 279 279 279 278 278 277 277 277 281 283 285 285 286 285 278 275 274 273 273 272 273 273
281 282 282 281 281 281 281 281 280 280 280 281 281 281 281 281 281 282 282 283 283 283 283 282 282 281 281 279 278 278 278 277 277 278 277 277 277 278 278 278 278 278 277 277 277 277 277 276 279 283 284 285 286 284 277 274 273 272 272 272 272 273
281 281 281 280 279 280 280 279 279 279 279 279 279 279 279 280 280 281 282 282 283 283 283 282 282 282 281 280 280 279 278 278 279 279 277 277 278 278 278 276 277 276 276 276 277 278 277 276 277 282 284 285 286 283 275 273 272 271 271 272 272 273
279 279 279 279 279 279 278 278 278 278 277 277 278 277 278 279 279 281 281 282 282 283 283 283 282 282 281 281 281 280 280 279 277 277 277 277 276 276 276 275 275 275 275 275 275 275 276 275 275 279 284 285 285 284 274 273 272 271 271 272 272 272
278 277 277 277 277 277 276 276 276 275 275 276 276 276 277 278 279 280 280 280 280 282 283 283 282 281 281 281 280 279 278 278 278 277 276 275 275 275 274 274 274 274 273 273 274 274 275 274 274 277 283 285 285 284 277 273 272 272 272 272 272 272
275 276 276 275 275 275 274 274 273 274 274 275 275 276 277 278 278 277 277 277 279 282 283 283 282 282 281 280 278 278 278 277 276 276 275 275 274 273 273 272 272 272 272 271 271 272 272 274 276 274 281 284 285 285 280 274 273 274 272 272 272 272
273 273 273 274 273 273 274 273 272 272 273 273 274 276 276 276 275 275 275 277 280 281 280 280 280 281 280 279 279 278 277 277 275 274 274 273 273 272 272 271 271 270 270 270 269 270 271 272 274 277 277 282 284 286 282 279 276 278 274 273 272 272
272 272 272 272 271 271 271 271 271 271 271 272 274 274 274 273 273 274 275 276 277 277 277 277 277 278 279 279 278 278 277 276 275 274 273 273 273 272 272 271 271 270 270 270 269 270 270 272 272 276 278 279 284 285 285 281 279 279 275 274 273 273
270 270 270 270 270 270 269 269 269 270 270 271 272 271 271 271 272 273 274 274 273 273 273 274 274 275 276 277 278 277 277 276 275 273 273 273 272 272 272 272 271 270 270 270 270 270 270 271 272 273 276 279 281 284 285 282 281 280 279 274 273 273
267 268 268 268 269 269 269 269 268 268 269 270 269 269 270 270 270 270 270 269 269 270 270 270 271 273 274 276 277 277 277 277 276 274 274 273 272 272 272 272 271 271 271 270 271 270 270 270 271 272 273 277 279 282 284 283 281 280 279 276 274 275
267 267 267 267 268 268 268 268 268 268 268 267 268 268 268 267 267 266 266 266 267 267 268 269 270 272 273 274 276 277 276 276 276 275 274 273 272 272 272 272 271 271 271 270 271 270 269 269 270 271 272 274 276 278 281 282 280 281 280 275 274 276
266 266 266 266 267 267 267 267 266 267 266 266 266 266 265 264 264 264 264 264 265 265 266 267 269 271 272 273 275 276 276 276 275 274 274 273 273 272 272 272 272 271 271 271 271 270 268 268 269 270 271 273 275 277 280 280 278 278 276 273 273 274
265 265 265 265 266 266 266 265 265 265 265 265 264 264 263 263 263 263 263 263 264 264 266 267 268 269 270 272 273 275 276 276 276 275 275 275 275 275 274 273 273 273 273 272 271 269 268 268 268 270 274 274 277 277 278 278 277 277 274 275 276 273
264 264 264 265 265 265 264 264 264 264 264 263 263 262 261 261 261 261 261 262 263 264 265 266 268 269 270 271 272 273 275 277 279 278 276 275 277 279 279 279 275 275 274 273 273 272 270 269 270 274 276 277 278 280 282 281 280 279 275 277 279 275
264 264 263 264 264 263 262 262 262 262 262 261 261 261 260 260 260 260 261 262 262 263 264 265 265 267 268 269 271 272 273 274 276 280 281 280 279 279 279 280 280 280 278 275 272 273 276 275 274 276 277 278 279 280 282 281 281 280 278 279 275 272
263 262 262 262 262 261 261 261 261 261 260 260 260 260 259 259 259 259 259 260 261 262 263 264 265 266 267 269 271 272 273 273 273 274 278 280 281 281 280 280 280 281 280 279 277 273 272 276 277 277 278 278 279 280 281 282 281 280 279 279 277 270
262 261 261 261 260 260 260 259 259 260 259 259 259 259 259 259 259 258 259 259 260 262 263 264 265 267 268 269 271 272 273 273 273 273 273 275 279 281 281 280 280 281 281 280 280 278 275 275 277 277 278 279 279 280 281 282 281 280 280 279 272 269
260 260 259 259 258 258 258 258 259 259 259 259 259 258 258 258 258 259 259 260 261 262 263 265 266 268 270 271 272 273 273 274 274 273 273 273 272 273 277 280 280 280 280 281 280 279 278 278 278 278 278 279 279 280 281 281 280 281 281 277 270 268
258 258 258 258 258 258 257 257 258 258 258 258 258 258 258 259 259 260 262 263 264 264 265 266 266 265 265 266 267 268 270 272 273 273 273 272 272 271 271 272 275 278 280 278 279 280 279 278 278 278 278 279 279 280 281 282 278 276 276 274 269 268
257 256 257 257 256 256 256 256 257 258 258 258 258 258 258 259 259 260 260 261 262 262 262 262 263 264 264 264 265 267 269 272 273 273 272 272 272 272 271 272 273 274 277 280 280 280 280 279 279 279 279 279 280 280 281 276 274 274 273 270 268 267

ECMWFFLT1_sfc_thetae_027.txt.gz
Theta_e
285 286 286 287 287 287 287 288 288 287 287 286 286 285 285 285 286 286 286 286 287 288 287 287 287 287 288 288 288 288 288 287 287 287 288 288 288 288 288 288 288 288 287 287 287 287 286 286 286 286 285 285 284 284 284 284 283 283 283 283 283 283
285 285 286 286 286 286 287 287 288 287 287 287 287 287 286 286 286 285 285 286 286 286 286 287 287 287 288 288 288 287 287 287 287 287 287 288 288 288 288 288 288 287 287 287 287 286 286 286 285 285 285 284 284 284 283 283 283 282 282 282 282 282
285 285 285 286 286 286 286 287 286 287 287 287 287 286 287 287 287 286 286 285 286 285 286 286 286 286 287 287 287 287 287 287 287 287 287 287 287 287 287 287 287 287 287 287 286 286 285 285 285 285 284 284 283 283 283 282 282 282 282 282 281 281
285 285 285 285 285 285 285 286 286 286 285 286 286 286 287 286 287 286 286 285 285 285 286 286 285 286 286 286 286 286 286 286 286 287 286 286 287 287 287 287 287 287 287 287 286 286 286 285 285 284 284 283 283 283 283 282 281 281 282 281 280 280
283 284 284 285 285 284 284 285 285 285 285 285 285 285 285 286 286 286 286 285 285 285 285 285 285 285 285 285 286 286 286 287 286 286 286 286 286 286 287 287 287 287 287 286 286 286 285 285 284 284 283 283 283 283 282 282 281 281 281 281 280 280
283 283 283 284 284 284 284 284 285 285 285 285 285 285 285 286 286 286 286 286 285 285 284 284 284 284 285 285 285 285 286 287 287 286 285 286 286 285 286 286 287 286 286 286 286 286 285 285 284 284 283 283 283 283 282 282 281 281 282 281 280 280
282 282 283 283 283 284 284 284 284 284 284 284 284 284 285 286 286 286 286 286 286 286 285 285 285 284 284 284 285 285 286 286 287 286 286 285 285 285 285 285 286 286 286 285 285 285 285 285 284 284 283 283 283 283 283 282 282 281 281 281 281 281
282 282 282 283 283 284 284 284 284 284 284 284 284 284 285 285 286 285 286 286 285 285 285 285 285 285 285 285 285 285 286 286 286 286 286 286 285 285 285 285 285 285 285 285 286 286 285 285 285 284 284 283 283 283 283 282 282 281 281 281 281 281
282 282 282 283 283 284 284 284 283 284 284 284 284 284 284 285 285 285 285 285 285 285 285 285 284 284 284 284 285 285 285 285 286 286 286 286 286 285 285 285 284 285 285 285 285 285 285 285 285 284 284 283 283 283 282 282 282 281 281 281 281 281
281 282 282 283 283 284 284 284 284 284 283 283 283 284 284 285 284 284 284 284 284 284 284 285 285 285 284 284 284 285 285 285 285 285 285 286 285 285 285 285 284 284 284 285 285 285 285 285 284 284 284 283 283 283 282 282 282 281 281 281 281 281
281 281 282 283 283 283 283 283 283 283 283 283 283 283 283 284 284 284 284 284 284 284 285 285 285 285 285 285 284 284 284 285 285 285 285 285 285 285 285 285 285 284 283 284 284 284 285 284 284 284 284 283 283 283 282 282 282 281 280 280 280 280
282 282 282 282 282 282 283 283 282 282 282 282 282 283 284 284 284 283 283 283 284 284 285 285 284 284 284 284 284 284 284 284 284 285 285 285 285 285 285 285 284 284 284 283 283 284 284 284 284 285 285 285 283 282 282 282 281 281 280 280 280 279
282 282 282 282 282 282 282 282 282 282 281 281 281 282 283 284 283 283 283 283 284 284 284 284 284 284 283 284 284 284 284 283 284 284 284 284 284 284 284 284 284 284 284 283 283 283 283 284 284 286 287 287 286 283 282 281 281 281 280 280 280 279
281 280 280 280 281 281 281 281 281 280 280 281 281 282 283 282 283 282 283 283 284 284 284 284 284 283 283 283 283 283 283 283 283 283 283 283 283 283 283 282 283 283 284 283 283 283 283 283 285 286 287 287 287 286 282 282 281 280 280 280 279 279
280 280 280 280 281 281 281 281 280 280 281 280 281 282 282 282 282 282 282 283 283 283 283 283 283 283 283 283 283 282 282 281 282 282 282 282 283 283 282 282 282 282 283 283 283 283 283 283 286 286 287 287 287 287 285 282 281 280 280 280 279 279
280 280 280 280 281 281 282 281 280 281 281 281 281 281 282 281 281 281 282 282 282 283 283 283 283 282 282 283 283 282 281 280 280 281 281 282 282 282 282 282 282 282 282 282 282 282 283 283 285 286 287 287 287 288 286 282 281 280 280 279 279 279
280 280 280 280 281 281 281 280 280 280 279 280 280 281 281 280 280 280 281 281 281 282 282 282 282 282 282 282 282 282 281 281 280 280 281 281 281 281 282 282 281 281 281 282 282 282 282 282 285 286 286 287 287 288 287 283 281 280 280 280 279 279
280 280 280 281 281 280 279 279 279 278 278 279 279 279 280 279 279 279 280 280 280 280 281 281 281 281 282 282 282 282 282 282 281 281 280 280 280 280 280 280 280 280 281 281 281 281 281 281 284 285 286 287 287 288 286 284 281 280 279 279 279 278
281 280 280 280 280 279 279 278 278 277 276 277 277 278 278 278 278 278 279 279 279 279 280 279 279 279 281 282 282 282 281 282 281 281 281 279 279 279 279 279 280 280 280 280 280 280 280 280 283 285 285 286 287 287 285 284 281 280 279 278 278 278
281 280 280 279 279 279 278 277 276 275 275 275 275 275 276 276 276 277 278 278 278 278 278 278 278 279 281 282 282 281 281 281 281 281 280 279 279 278 278 279 279 279 279 279 279 279 279 280 281 283 285 286 286 286 284 283 282 279 278 278 278 277
279 279 279 278 278 278 276 275 273 274 274 274 274 274 274 274 275 276 276 277 277 277 276 276 277 279 281 281 281 280 279 279 280 280 280 279 278 278 278 278 278 278 278 278 279 280 280 279 280 283 284 285 286 286 285 283 281 279 278 277 276 276
277 277 277 277 277 277 274 273 272 272 273 273 273 272 272 273 274 275 275 275 274 274 274 275 276 279 280 279 278 278 278 279 279 279 279 279 278 277 277 277 277 276 277 277 277 277 278 279 279 280 283 284 285 286 285 283 280 278 277 276 275 274
277 277 276 277 276 275 272 271 271 271 272 272 272 271 272 274 274 274 273 273 272 272 272 274 276 277 277 277 276 276 276 277 277 277 277 278 278 278 277 276 276 276 276 277 277 277 278 278 278 279 282 283 284 286 286 282 280 279 277 275 274 274
274 274 274 274 274 273 271 270 270 271 271 270 270 271 273 273 272 272 271 271 270 271 271 273 275 275 274 273 273 273 273 274 275 276 276 277 277 276 276 277 276 276 276 276 276 276 277 278 279 278 280 282 283 285 286 283 279 279 277 275 274 274
273 273 273 273 272 271 271 268 269 270 270 269 270 271 271 271 270 270 269 269 269 270 270 271 271 270 270 270 271 270 270 272 273 274 275 276 276 275 275 275 276 275 275 275 275 275 275 276 276 279 278 280 282 284 285 286 282 282 278 276 274 274
272 272 272 272 271 269 270 268 268 269 269 269 271 270 269 268 268 268 268 268 268 268 268 268 268 268 268 268 269 269 269 270 271 273 274 275 275 275 275 276 275 275 274 274 275 275 274 274 275 277 279 279 281 283 284 285 285 282 278 277 276 275
270 270 270 271 271 270 268 267 267 267 267 269 269 268 267 267 267 266 266 266 265 266 266 266 266 266 266 266 267 267 269 269 271 271 273 274 275 275 274 275 275 274 274 274 274 275 275 273 273 274 276 279 280 281 283 284 285 283 282 277 276 276
268 268 268 269 269 269 268 267 267 266 268 269 268 267 266 265 265 265 264 264 264 264 264 264 264 264 265 265 266 267 268 269 270 271 272 274 274 275 274 274 275 275 274 274 274 275 275 274 273 273 274 276 278 279 281 283 284 284 282 280 277 277
267 267 267 267 268 268 267 266 266 267 267 267 267 266 264 264 263 263 263 263 263 263 263 262 263 263 264 264 265 267 268 269 270 271 272 273 274 274 274 275 274 274 274 274 274 275 275 274 273 273 273 274 275 276 278 279 281 284 283 280 277 277
266 266 266 266 267 268 267 267 266 266 266 265 265 263 262 262 262 262 262 262 262 262 262 262 263 263 263 263 264 265 266 267 268 269 270 271 272 273 274 274 274 274 274 274 275 275 274 273 273 273 272 273 274 275 276 278 279 281 281 278 276 276
265 265 265 265 266 266 266 265 266 266 265 265 262 261 260 261 261 261 260 261 261 260 261 261 261 262 262 262 263 264 265 266 266 268 269 271 273 274 274 274 275 275 275 275 275 275 274 274 273 273 276 274 276 275 275 276 277 279 280 279 278 275
264 264 264 264 265 265 264 264 264 264 264 262 261 260 260 260 260 259 259 259 259 259 260 260 260 261 261 261 262 262 263 267 270 270 269 270 274 276 279 279 276 277 277 276 276 277 275 275 276 278 278 278 278 279 279 279 280 281 280 279 280 277
263 263 262 263 263 262 262 262 262 262 261 261 261 260 259 259 258 258 259 259 258 259 259 259 259 260 260 260 261 261 262 263 266 271 274 275 275 277 278 279 280 281 282 279 277 278 281 280 280 279 279 279 279 279 280 280 281 282 282 281 277 275
260 260 260 260 260 260 260 259 259 260 259 259 259 259 258 258 258 257 257 258 258 258 259 259 259 259 260 260 261 261 262 263 264 266 272 275 276 277 278 279 280 281 281 282 281 280 278 279 281 281 280 279 280 280 280 280 281 282 282 281 280 273
259 258 258 258 258 257 257 257 257 258 258 258 258 258 257 257 257 256 256 257 257 258 258 259 259 259 260 260 261 262 263 264 265 266 268 272 276 278 278 279 280 281 281 282 282 283 282 280 279 280 280 280 280 280 280 281 281 282 283 282 277 273
257 256 256 256 256 256 256 256 256 257 257 258 258 257 256 256 256 256 256 257 257 258 258 259 259 260 260 261 262 263 264 264 264 264 265 265 266 268 272 275 277 278 280 281 282 282 282 283 282 280 280 280 280 280 281 281 280 282 283 280 275 273
255 255 255 256 256 255 255 255 256 257 257 257 257 256 256 256 256 257 258 259 259 259 259 259 259 260 260 260 260 260 260 261 263 264 264 264 264 266 268 270 273 277 279 278 279 281 282 282 283 282 280 280 280 280 281 281 278 277 278 278 276 273
254 254 255 255 255 254 254 255 256 257 257 257 256 256 256 256 256 257 257 258 258 258 259 259 259 259 259 259 259 260 260 261 261 262 262 263 264 264 264 267 271 274 277 279 279 280 281 282 282 282 281 280 280 280 281 277 276 276 277 276 275 273

ECMWFFLT1_sfc_thetae_030.txt.gz
Theta_e
288 288 288 289 289 289 289 290 290 290 290 290 290 290 290 290 291 291 291 291 292 292 291 291 292 292 293 293 294 294 294 294 295 295 295 295 296 295 295 295 295 295 294 294 294 294 293 293 293 293 292 292 291 291 290 291 291 290 290 290 290 290
288 288 288 288 288 288 289 289 289 289 289 289 290 290 290 290 290 290 290 291 291 291 291 291 291 291 292 292 292 292 292 293 293 294 294 294 295 295 295 295 294 294 294 293 293 293 293 293 292 292 292 291 291 290 290 290 290 289 289 289 289 289
287 287 288 288 288 289 289 289 288 289 289 289 289 289 289 289 289 290 290 290 290 289 289 290 290 290 291 291 291 291 291 292 292 293 293 294 293 294 294 294 294 294 294 293 293 292 292 292 291 291 291 291 290 290 289 289 289 288 288 288 288 288
286 287 288 288 288 288 287 288 288 288 288 288 289 289 289 289 288 289 289 290 289 288 288 288 289 289 290 289 290 289 290 290 291 292 292 292 292 293 293 293 293 293 293 293 292 292 292 292 291 291 290 290 289 289 289 288 288 287 287 287 287 287
286 286 286 287 287 287 287 287 287 287 287 287 288 288 288 289 289 289 289 288 288 288 288 287 287 288 288 288 288 288 288 289 290 291 290 291 291 292 292 292 292 292 292 292 292 292 291 291 291 290 289 289 289 288 288 288 287 287 286 286 286 286
286 286 286 286 286 286 286 287 287 287 287 287 287 287 287 288 289 289 288 288 288 288 288 288 288 287 287 286 287 287 288 289 289 290 290 290 290 290 291 291 291 291 291 291 291 290 290 290 290 290 289 289 288 288 287 287 287 286 286 286 286 286
285 285 286 286 286 287 287 286 286 286 286 286 286 286 287 288 288 288 288 288 287 288 288 288 288 287 287 287 287 287 288 288 289 289 289 289 289 290 290 290 290 290 290 290 289 289 289 289 289 289 289 289 288 288 287 287 287 286 286 286 286 286
286 286 286 286 286 286 286 286 286 286 286 285 286 286 287 287 288 288 287 287 287 287 287 287 287 287 287 287 287 287 287 287 288 288 289 289 289 289 289 289 289 289 288 288 289 289 289 289 288 288 288 288 288 287 287 287 287 286 286 286 284 284
285 285 285 286 286 286 286 286 286 286 285 285 285 286 286 287 287 287 286 287 287 287 286 286 286 286 286 286 286 287 287 287 287 287 288 288 288 288 288 289 289 289 288 287 288 288 288 288 288 288 287 287 287 286 285 286 286 286 286 286 285 285
285 285 285 285 286 286 286 286 286 285 285 285 285 285 286 287 286 286 286 286 286 286 286 287 287 287 287 287 287 287 287 287 287 287 288 288 288 287 288 288 288 288 288 287 287 287 288 288 288 288 288 287 287 286 286 285 285 285 285 285 285 285
285 285 285 285 286 286 286 286 286 285 285 285 285 284 285 286 286 285 285 285 285 285 286 286 287 287 287 287 286 286 286 287 287 286 287 287 287 288 288 288 288 287 287 287 287 287 287 287 287 288 287 287 287 286 286 285 285 285 285 284 284 284
285 285 286 285 285 285 285 286 285 285 285 285 284 284 285 285 285 285 285 284 285 285 286 286 286 286 286 286 286 286 286 286 286 286 286 286 287 287 287 287 287 287 287 287 287 287 287 286 287 287 287 288 287 287 286 286 285 285 285 284 283 283
285 285 285 285 285 285 285 285 285 285 284 285 284 284 284 285 284 284 284 284 284 285 285 285 285 285 285 285 285 285 286 286 286 285 285 286 286 286 286 286 286 286 286 286 286 286 287 287 287 287 289 289 289 287 286 285 285 285 285 284 283 283
285 285 285 285 285 285 285 285 285 284 284 284 283 283 284 284 284 283 283 283 284 284 284 284 284 284 284 284 284 284 285 285 285 285 285 285 285 285 285 285 286 286 286 285 285 285 286 286 287 288 288 289 289 289 286 286 285 285 285 284 283 283
285 285 285 286 286 286 286 286 285 284 284 284 283 283 282 283 283 283 283 283 283 283 283 283 283 283 282 282 283 284 285 285 285 285 285 284 285 285 284 285 285 285 286 285 285 284 285 285 287 288 288 289 289 289 288 286 285 285 285 284 284 283
286 286 286 286 286 286 286 286 285 285 285 283 283 282 282 282 282 282 282 282 282 283 282 282 282 281 281 281 281 283 284 285 284 284 284 285 285 284 284 284 284 284 284 285 285 285 285 285 286 287 287 288 288 289 288 286 285 285 285 285 284 283
286 286 286 286 286 286 286 286 286 285 284 283 282 282 281 281 281 281 281 281 281 282 281 281 280 280 279 279 280 281 283 284 284 284 284 284 283 283 283 283 283 283 283 284 284 284 284 284 286 286 287 287 288 288 288 286 286 285 285 285 284 283
285 285 286 287 287 286 286 285 285 284 283 283 281 281 280 280 280 280 280 280 280 280 280 280 279 278 277 277 278 279 281 283 283 282 282 282 282 283 283 283 284 283 283 284 284 283 283 284 285 286 286 286 287 287 286 286 286 285 285 285 285 283
286 286 287 287 286 286 285 285 284 283 282 281 281 280 279 279 278 279 279 279 279 279 280 279 278 277 276 276 276 277 280 281 281 280 280 280 281 281 281 282 282 283 283 282 283 282 282 283 285 285 285 286 286 286 285 286 286 285 285 285 285 284
287 287 287 286 285 285 285 284 283 282 281 280 280 279 278 278 278 278 278 278 278 279 279 278 276 275 275 275 275 276 279 280 279 278 278 278 278 279 280 281 281 281 282 282 282 282 282 282 283 285 285 285 286 285 285 285 285 285 285 285 285 284
286 286 285 285 284 284 284 282 281 280 279 279 279 278 277 277 278 278 277 277 278 278 278 277 276 275 274 274 274 276 277 277 276 276 276 276 276 277 278 279 280 281 281 282 282 282 282 282 283 284 284 285 285 285 285 284 284 284 284 285 284 284
284 283 283 283 283 284 282 281 279 278 278 278 278 277 276 277 277 278 278 277 277 277 276 276 274 274 273 273 274 275 275 275 274 274 274 274 274 275 276 277 279 279 280 281 281 281 281 281 282 282 283 284 285 285 284 284 284 283 283 284 283 282
282 282 282 282 282 281 280 278 277 277 277 277 276 276 276 277 277 277 276 276 276 275 274 274 273 272 273 273 273 274 273 272 272 272 271 271 272 273 274 275 276 277 278 279 280 281 281 281 281 282 283 283 284 285 284 283 283 284 284 284 283 283
280 280 279 280 280 279 278 277 275 275 275 275 275 275 277 276 276 275 275 274 274 273 272 272 272 272 272 272 272 271 270 271 271 270 270 270 271 271 272 273 274 276 277 279 280 280 280 281 281 281 282 283 283 284 284 283 283 284 284 283 283 283
277 277 277 277 277 277 276 275 273 274 274 273 274 276 275 275 274 273 273 272 271 271 271 271 271 270 270 270 270 269 268 269 268 268 269 269 269 270 271 272 274 275 276 278 279 280 280 281 281 282 281 282 283 283 284 284 284 285 284 283 282 282
275 275 275 275 275 275 275 274 272 272 271 272 274 274 274 273 272 272 270 270 270 270 270 269 269 269 269 269 268 268 267 267 267 267 268 268 269 269 270 272 274 275 276 276 277 279 280 281 281 281 281 281 282 283 283 284 285 285 284 284 283 283
272 272 272 273 273 273 272 272 271 270 269 271 272 271 271 270 270 269 268 268 268 268 268 268 268 268 267 267 267 266 266 266 266 266 267 267 268 269 269 271 273 273 275 276 276 278 279 280 281 280 280 281 281 282 283 283 284 285 285 283 284 283
270 270 269 270 270 270 270 270 270 268 269 270 270 270 269 268 267 267 266 267 267 267 267 266 266 266 266 266 266 266 266 265 265 265 266 267 267 268 269 270 271 273 274 275 276 277 278 279 280 279 279 279 280 280 281 282 283 283 284 284 284 284
267 267 267 266 268 268 268 268 268 268 268 267 267 267 266 265 264 264 264 264 265 265 265 264 264 265 265 265 265 265 265 265 265 265 265 266 266 267 268 269 270 272 273 274 275 276 277 278 279 279 279 278 278 278 279 279 280 282 282 282 282 283
265 265 265 265 266 266 265 265 265 265 264 264 264 263 263 262 262 262 262 262 263 263 263 263 263 263 263 263 263 263 264 264 265 265 265 265 265 266 266 268 269 270 271 273 274 275 276 277 278 278 279 278 278 277 278 278 278 279 279 280 281 282
264 263 263 262 263 263 262 262 262 261 261 261 261 261 260 260 260 260 260 260 261 261 262 262 262 262 262 262 262 263 263 263 263 264 264 265 266 266 266 266 267 269 270 271 272 273 274 275 276 277 281 279 279 277 277 277 277 278 279 280 282 281
261 260 260 260 261 260 260 259 259 260 260 260 259 259 258 258 258 258 258 259 259 260 260 261 261 261 261 261 261 261 261 264 267 266 264 264 267 270 272 272 268 269 270 270 272 273 273 274 276 280 280 281 281 281 280 279 280 280 279 280 282 281
259 259 258 259 259 259 258 258 258 258 259 259 259 259 258 258 257 258 258 258 258 259 259 259 259 259 260 260 260 260 260 260 262 267 269 270 270 271 272 273 274 275 275 273 272 274 278 279 280 281 281 281 282 282 281 281 281 281 281 281 280 279
258 257 257 258 258 258 257 257 258 258 258 259 258 258 258 257 257 257 257 258 258 258 259 259 259 259 259 259 260 259 259 259 259 261 266 269 270 271 272 273 274 275 276 277 276 275 274 277 279 280 281 281 282 282 282 282 282 282 282 282 282 277
257 257 257 257 257 257 257 256 257 258 258 258 258 258 257 257 257 256 257 257 257 258 258 258 258 258 259 258 259 259 259 259 259 259 260 263 268 270 271 272 273 273 275 276 277 278 278 279 279 280 280 281 282 282 282 282 282 282 283 282 279 277
257 257 256 256 256 256 256 256 257 257 258 258 258 258 257 257 257 257 257 257 257 257 257 258 258 258 259 259 259 259 259 260 260 259 260 260 260 262 265 268 270 271 273 274 275 275 276 277 278 279 280 281 282 282 283 282 281 282 283 281 278 278
256 256 256 256 256 256 256 256 257 257 258 257 257 257 257 256 256 257 257 258 258 258 258 258 259 259 259 259 259 259 259 259 260 260 259 259 259 259 260 261 263 267 270 269 270 272 274 276 278 278 278 279 281 282 283 282 280 278 278 279 279 278
255 255 256 256 256 256 256 256 257 257 257 257 257 256 256 256 256 257 257 257 258 258 258 258 258 259 259 259 259 259 259 259 259 259 259 260 260 260 260 261 262 264 268 270 271 272 273 274 275 277 279 280 281 282 282 278 277 277 277 277 278 278

ECMWFFLT1_sfc_thetae_033.txt.gz
Theta_e
288 288 288 289 289 289 289 289 290 290 290 290 291 290 290 290 291 291 291 291 291 291 291 291 291 292 292 292 292 293 292 292 293 293 294 295 295 295 296 296 296 296 297 297 296 296 296 296 296 295 295 295 294 294 293 293 293 292 292 292 292 292
287 287 287 288 288 288 289 289 289 288 289 289 289 290 290 290 290 290 290 291 290 290 290 290 290 291 291 291 292 291 291 291 291 291 292 293 293 293 294 294 294 295 295 295 295 295 295 295 295 295 294 294 293 293 292 292 292 291 291 291 291 291
287 287 288 288 289 289 289 289 288 288 288 288 289 288 288 288 289 289 289 290 290 289 289 289 289 289 289 290 291 290 290 291 291 291 291 291 292 292 292 292 293 293 294 294 294 294 294 294 294 294 294 293 292 292 292 292 291 291 291 291 290 291
287 287 288 288 288 288 288 288 288 287 287 288 288 288 288 288 288 288 289 289 290 289 289 289 289 289 289 288 288 288 289 289 290 291 291 290 291 291 291 291 292 292 292 292 293 293 294 294 294 293 293 292 292 291 292 291 291 290 290 290 289 290
287 287 287 287 287 287 287 287 287 287 287 287 287 287 287 288 288 289 289 289 288 288 288 288 288 288 288 288 288 287 288 288 288 290 289 290 290 290 290 290 291 291 291 291 292 292 292 293 293 293 292 292 291 291 291 291 290 289 289 289 289 289
287 287 287 287 287 288 287 287 287 287 286 286 286 286 287 287 288 288 288 288 288 288 287 287 287 287 286 286 287 287 288 288 288 289 288 289 289 288 289 289 289 290 290 290 290 290 291 291 292 292 292 291 291 290 290 290 289 289 289 289 288 289
286 286 287 287 287 287 287 287 287 287 287 286 286 286 287 287 287 287 287 287 287 287 287 287 286 286 286 286 287 287 287 288 288 288 288 288 288 289 288 288 288 288 288 288 289 289 289 289 290 290 290 291 290 290 290 289 289 289 289 288 288 288
286 286 286 287 286 286 287 287 287 287 286 286 286 285 286 287 287 287 287 287 287 287 286 286 286 286 286 286 286 286 287 287 287 287 287 288 287 288 288 288 288 287 287 287 287 287 288 288 288 288 289 289 289 289 289 289 289 288 288 288 288 288
286 286 286 286 286 287 287 287 287 286 286 286 286 286 286 286 287 286 286 286 286 286 285 285 285 286 286 286 286 287 287 287 287 287 286 287 287 287 287 287 288 288 288 288 288 287 287 287 287 287 287 288 288 288 288 288 288 288 288 288 288 288
286 286 286 286 286 287 287 287 287 287 286 286 286 285 285 287 286 285 286 285 285 285 285 285 286 286 286 286 286 286 286 286 287 287 287 287 286 286 286 286 286 287 287 287 287 288 288 287 286 286 287 288 288 287 287 287 287 287 287 287 288 288
286 286 286 286 286 286 286 286 287 287 287 286 286 286 285 285 285 284 285 284 284 284 285 285 286 286 285 285 285 285 285 285 286 287 287 286 286 287 286 286 286 286 286 287 287 287 287 287 287 287 286 286 286 287 287 287 287 287 286 286 287 287
286 285 286 286 286 285 286 286 286 286 286 286 286 286 285 285 284 284 284 283 283 284 284 285 285 285 285 285 284 284 284 284 285 286 286 286 286 286 286 286 285 285 285 286 286 286 287 287 288 287 288 288 286 286 286 286 286 286 286 286 286 286
286 286 285 286 286 286 286 286 286 287 286 286 286 285 285 285 283 283 283 283 284 284 284 284 284 284 284 284 284 283 283 283 284 285 285 285 285 285 285 285 285 285 285 285 285 285 286 287 287 288 290 290 290 288 286 285 285 286 285 285 285 285
285 285 285 285 286 286 286 286 286 286 286 286 286 286 285 284 283 283 283 283 283 283 283 283 283 283 283 283 282 282 281 282 283 284 285 285 285 284 284 284 284 284 284 284 284 284 285 285 287 288 289 289 289 289 287 286 286 285 285 285 285 285
285 285 285 285 286 286 286 287 286 286 286 286 286 286 284 283 283 283 283 283 283 283 283 283 282 282 282 282 281 281 280 280 281 282 284 284 284 284 283 283 283 283 284 284 283 283 284 285 287 287 288 288 288 288 288 287 286 286 285 285 285 285
286 286 286 286 287 287 287 287 286 287 287 286 286 285 284 283 283 283 282 282 282 282 282 282 282 281 281 281 280 280 279 279 279 281 283 284 284 283 282 282 282 283 283 283 283 283 283 283 285 287 287 287 288 288 288 286 286 286 286 286 285 285
286 286 286 286 286 287 287 287 287 287 287 286 285 284 283 283 282 282 282 281 281 281 281 281 281 281 281 280 280 279 278 278 278 279 281 282 282 281 280 281 281 282 282 282 282 282 282 283 285 286 287 287 287 287 287 286 286 286 286 286 286 286
286 286 286 287 287 287 287 287 287 286 285 285 284 284 283 282 282 281 281 281 281 281 281 280 280 280 280 279 279 278 277 277 277 277 279 281 281 280 280 280 280 280 280 280 281 281 281 282 285 285 286 287 287 287 285 285 285 285 285 285 286 286
287 287 287 287 287 287 286 287 286 285 284 283 283 283 282 282 281 280 280 280 280 280 280 280 279 279 279 278 277 276 276 276 276 277 278 279 279 278 278 277 277 278 279 279 279 279 280 281 283 285 285 286 286 286 284 284 284 284 284 285 285 286
287 286 286 285 285 285 284 283 281 281 280 280 280 280 280 280 280 280 280 280 280 280 280 279 279 278 278 277 276 276 276 276 276 276 277 277 276 276 276 276 276 276 277 278 278 279 279 280 282 284 284 285 285 285 283 283 283 283 283 284 285 285
284 284 284 284 282 282 281 281 280 278 277 278 278 278 278 278 279 279 279 279 279 279 279 278 278 278 277 276 276 275 274 274 274 275 276 276 275 274 275 275 274 274 275 276 277 279 279 280 281 283 283 284 285 284 283 283 282 282 282 283 283 285
282 281 281 280 280 280 280 279 278 277 276 276 277 276 276 277 277 278 278 278 278 277 277 277 276 276 276 275 274 274 274 274 274 274 274 274 274 273 273 273 273 272 273 275 276 276 277 277 278 280 283 283 284 285 283 283 282 281 281 282 283 283
279 278 278 278 279 278 278 277 276 275 274 274 274 274 274 275 276 276 276 276 275 275 274 275 275 274 274 274 273 273 273 273 273 273 272 272 271 271 271 270 271 271 271 272 273 273 274 276 277 279 282 283 284 285 284 282 281 281 281 281 282 282
277 277 277 277 276 276 275 275 273 273 272 272 271 272 273 273 273 273 273 273 272 272 272 272 272 272 272 272 272 271 271 272 272 271 271 271 270 269 268 269 269 269 269 270 271 273 274 276 278 278 281 283 284 284 285 282 281 282 281 281 281 282
275 274 274 274 274 274 273 272 271 270 270 269 270 271 271 271 271 270 270 270 269 269 269 269 269 270 270 270 270 270 269 270 269 269 269 268 268 267 267 267 267 268 268 270 271 272 274 275 277 280 280 282 283 284 284 285 283 284 283 281 280 281
272 271 272 272 272 271 271 270 268 268 268 267 269 269 269 268 267 267 267 266 266 266 266 266 267 267 268 268 268 268 267 267 267 267 268 267 267 266 266 267 267 268 268 268 269 272 274 275 277 279 281 281 283 284 284 285 285 285 282 282 281 281
269 269 269 270 269 269 269 269 267 266 265 266 267 266 265 264 264 263 263 262 262 263 263 264 264 264 265 265 266 265 266 266 266 265 266 266 266 266 265 266 267 266 267 268 269 270 272 274 275 277 279 282 283 283 284 284 285 285 285 283 282 283
268 267 267 267 267 267 267 266 265 263 263 264 264 263 262 262 261 260 260 260 261 261 261 261 261 262 263 263 264 264 265 265 265 265 265 265 265 265 265 265 266 266 267 267 268 269 270 272 274 275 277 279 281 282 283 283 284 284 284 284 282 284
265 265 265 263 265 264 264 263 263 263 263 262 262 262 261 260 259 259 259 259 259 260 260 259 260 260 261 262 262 263 264 264 264 264 264 264 264 264 264 265 265 265 266 266 267 268 270 271 272 273 274 276 277 278 280 280 281 282 283 282 282 282
263 263 262 262 262 263 262 262 262 262 262 261 261 260 260 259 259 258 258 258 259 259 259 259 260 260 260 261 261 261 261 262 263 262 262 262 263 262 263 263 264 264 265 265 266 267 268 269 270 271 273 275 276 278 279 279 279 278 279 279 280 280
262 261 261 260 261 261 261 261 261 261 261 261 260 260 258 258 258 258 258 258 258 258 259 259 259 259 259 260 260 260 261 261 261 261 261 262 263 263 262 262 262 263 264 264 265 265 265 266 267 269 274 274 276 275 275 276 277 278 278 279 281 279
261 260 259 260 260 260 260 260 260 260 260 260 259 259 258 258 258 257 257 258 258 258 258 259 259 259 259 259 259 259 260 263 266 264 262 262 266 268 270 269 264 265 265 265 265 266 265 265 267 272 274 275 276 277 278 279 280 281 280 280 281 281
259 259 259 259 260 259 259 259 259 259 259 259 259 259 258 258 257 257 257 257 257 258 258 258 258 258 258 258 259 259 259 259 261 266 267 268 267 268 269 270 271 271 272 268 267 269 273 273 274 275 275 276 277 278 278 279 280 281 282 282 280 278
258 258 258 259 259 258 258 258 258 258 259 259 259 259 258 257 257 256 256 256 257 257 257 257 257 258 258 258 259 258 258 258 258 259 264 267 268 268 269 269 270 270 271 271 270 269 268 272 274 275 276 276 277 277 278 279 280 280 281 282 282 278
258 258 258 258 258 258 258 257 258 258 258 259 258 258 257 257 256 256 256 256 256 257 257 257 257 257 258 258 258 258 258 258 258 257 258 261 266 267 268 268 269 270 270 270 271 271 271 271 272 273 274 275 276 277 278 279 280 280 280 281 279 278
258 258 257 257 257 257 257 257 257 258 258 259 259 258 257 256 256 256 256 256 256 256 256 257 257 257 258 258 258 258 258 258 258 258 258 258 258 260 263 266 267 268 269 269 269 270 270 271 271 272 273 274 275 275 276 276 275 279 281 280 277 278
257 257 257 257 257 257 257 257 258 259 259 259 258 257 257 256 256 256 257 257 257 257 257 257 257 258 258 258 258 258 258 258 259 259 258 258 257 257 258 258 260 264 267 265 266 268 270 270 271 272 273 273 274 275 276 276 274 274 275 277 278 278
256 256 256 257 257 257 257 257 259 259 259 259 258 257 256 256 256 256 256 256 257 257 257 257 258 258 258 258 258 258 258 258 258 258 258 258 259 258 258 259 260 261 265 268 269 270 271 271 272 272 273 274 274 275 275 271 271 272 274 275 276 277

ECMWFFLT1_sfc_thetae_036.txt.gz
Theta_e
284 284 285 285 285 286 286 286 286 285 285 284 284 283 284 284 285 284 286 285 287 287 286 285 286 286 286 286 286 285 285 285 285 285 286 287 287 288 288 288 288 288 288 288 288 289 288 287 288 288 288 287 288 287 288 286 286 286 286 286 286 287
285 284 284 284 284 285 286 286 285 284 284 283 283 283 283 283 284 284 285 286 286 286 285 284 285 285 285 285 285 285 285 285 285 285 285 286 286 286 286 286 286 287 286 287 287 287 287 287 287 288 288 288 288 288 288 287 286 286 286 286 286 287
286 285 285 286 285 285 285 285 285 284 284 284 285 284 283 283 283 283 283 284 284 282 282 283 283 284 284 284 284 284 284 284 285 285 285 286 286 286 286 285 286 286 286 286 287 286 287 286 287 287 286 287 287 287 286 286 286 286 286 286 286 285
285 284 284 284 284 284 283 283 283 282 281 282 283 283 283 282 283 283 283 283 283 281 282 282 282 283 283 282 283 283 283 284 284 285 285 285 286 286 286 286 285 285 286 286 286 287 288 288 287 286 286 287 286 286 287 287 286 286 285 285 285 285
284 284 283 283 283 284 283 282 282 281 281 280 281 281 281 281 282 282 283 282 282 282 281 281 281 281 280 280 281 281 282 283 283 284 284 284 285 285 285 285 285 285 285 285 285 285 286 287 287 287 287 287 286 286 286 286 285 285 285 285 285 285
284 283 284 285 284 284 283 283 283 282 282 281 280 280 280 281 281 282 282 282 281 281 280 281 280 281 280 280 280 281 281 282 282 283 283 283 284 284 285 285 285 285 285 285 285 285 285 285 285 285 286 286 286 286 286 285 285 285 285 285 285 284
283 284 284 284 283 283 283 283 282 282 281 281 280 280 280 281 281 281 281 280 280 280 280 280 280 280 280 280 280 280 280 281 282 282 282 282 282 283 283 284 284 285 285 285 285 285 285 285 284 284 284 285 285 286 286 286 285 285 285 285 285 286
284 283 283 283 283 283 282 282 281 281 281 280 281 280 280 280 281 281 281 280 280 280 279 279 279 279 279 279 279 279 280 280 280 281 282 281 282 282 282 282 283 283 284 284 284 284 284 284 284 284 284 284 284 285 285 285 285 285 285 285 285 285
281 282 282 282 282 282 282 282 281 281 281 280 280 280 280 279 280 280 279 280 278 279 278 278 278 279 279 279 279 280 279 279 279 280 281 281 281 281 281 281 281 282 283 283 284 284 284 284 284 284 284 284 284 284 284 284 285 285 285 285 285 285
280 281 281 281 281 281 281 281 282 281 281 280 280 280 280 281 280 279 279 279 278 278 279 279 279 279 280 279 279 279 279 279 278 279 280 280 280 281 280 280 281 281 281 282 282 283 284 284 284 284 284 284 284 284 284 284 284 284 284 284 285 285
280 280 281 281 281 280 280 280 280 280 280 280 280 280 279 279 280 278 278 278 278 277 277 278 278 279 278 278 278 278 278 278 277 278 279 280 280 282 281 281 281 280 280 281 281 281 282 283 284 284 284 284 284 284 283 284 284 284 284 284 284 284
280 280 280 280 280 280 279 279 279 280 280 280 279 279 279 279 278 278 277 277 277 277 277 278 277 278 278 278 278 278 278 278 277 278 278 279 280 281 281 281 280 279 280 280 280 280 281 282 283 285 287 288 286 284 284 284 284 283 283 283 283 284
280 280 280 279 279 280 280 280 280 280 280 281 280 280 280 279 278 277 277 277 277 277 277 277 277 278 277 278 278 277 277 277 277 276 277 277 278 279 280 281 280 280 280 279 279 279 280 281 282 285 288 288 289 287 284 284 284 283 283 283 283 283
279 279 279 280 280 280 280 281 281 281 281 281 281 281 280 279 278 277 277 277 277 277 278 278 278 277 278 277 277 277 277 276 276 276 276 276 276 278 279 279 280 280 280 280 279 279 280 280 284 286 286 287 288 288 285 283 283 283 283 283 283 283
280 280 280 279 280 280 280 281 281 281 281 281 281 280 280 278 277 277 277 277 277 277 277 277 277 277 278 278 278 277 277 277 276 276 276 276 277 277 277 278 279 279 279 278 278 279 279 279 283 285 285 286 287 287 287 283 283 282 282 283 283 283
282 281 280 280 280 280 281 281 281 281 281 280 280 279 278 278 278 277 277 277 277 278 278 278 277 277 278 278 278 277 277 276 276 276 276 276 276 276 276 277 278 278 278 278 278 278 279 279 282 284 284 285 286 287 286 283 282 282 282 282 282 283
279 280 280 280 281 281 281 280 280 280 279 279 278 279 278 278 278 278 278 278 279 278 278 278 277 277 278 277 277 277 277 277 276 276 275 275 275 275 276 276 277 278 278 278 277 277 277 278 282 283 284 284 285 286 286 283 282 282 281 282 282 282
279 279 279 280 280 279 278 277 278 277 277 277 277 277 277 277 277 277 278 278 278 278 278 277 277 277 277 277 276 276 276 276 276 276 276 275 275 275 275 276 276 276 276 277 276 276 276 277 281 282 283 284 284 285 283 282 281 281 280 280 281 281
278 279 279 279 278 277 277 277 277 276 276 276 276 276 276 276 276 276 276 277 277 277 277 277 276 276 276 275 275 275 275 275 275 275 275 274 274 274 274 274 274 275 275 275 275 275 275 275 278 281 282 283 284 283 281 281 280 280 279 280 280 281
277 278 278 277 276 276 276 276 276 275 274 274 274 274 274 274 274 274 275 275 275 275 275 275 275 274 273 273 272 273 273 274 274 274 274 273 272 272 273 273 273 273 274 274 273 274 273 274 277 279 280 281 282 282 280 280 279 278 278 279 279 280
277 276 275 274 274 274 274 274 273 273 272 273 272 272 271 271 272 272 272 273 273 273 273 273 273 272 271 271 271 271 271 271 272 272 273 272 272 272 272 272 272 272 273 273 272 274 273 272 274 278 279 280 281 280 279 279 278 278 278 278 278 279
274 273 273 273 273 273 272 272 271 270 271 270 271 269 269 270 271 271 271 271 271 270 270 270 270 270 269 269 269 269 269 270 270 270 270 270 271 270 271 271 271 270 271 271 271 271 271 271 271 273 277 278 279 280 278 277 276 276 277 278 278 278
273 273 272 272 272 271 271 270 268 268 268 269 268 267 268 269 269 269 268 268 267 266 266 267 267 266 266 266 266 266 267 267 268 268 268 268 269 269 269 269 269 269 269 270 270 270 270 270 270 271 276 277 278 279 278 276 276 277 277 277 278 278
271 271 270 270 270 270 268 267 266 267 266 266 265 266 267 267 266 266 264 263 263 263 263 263 263 263 263 264 264 263 264 264 265 265 265 266 266 266 266 267 267 267 267 268 268 269 269 270 272 270 273 276 277 278 279 276 276 278 277 277 277 278
269 268 268 269 268 268 267 265 264 264 264 263 264 265 265 264 264 262 262 261 261 261 261 261 261 261 262 262 262 262 261 262 262 263 263 263 263 264 264 264 265 265 265 266 267 267 268 268 269 273 271 274 276 277 278 279 278 280 279 277 277 277
267 267 267 267 266 266 265 264 262 263 262 262 264 264 263 262 261 260 260 259 259 259 259 259 260 260 260 260 260 260 260 260 261 261 262 262 262 262 262 263 263 264 264 264 265 266 267 268 268 271 273 273 275 276 277 278 279 281 279 279 278 279
265 265 264 265 264 264 263 262 261 261 260 262 262 261 260 260 259 259 258 258 258 258 258 258 259 259 259 259 259 259 259 259 260 259 260 261 261 261 261 262 263 262 263 263 263 264 265 266 267 267 270 273 274 276 277 278 279 279 280 278 279 280
263 263 262 262 262 262 261 260 259 259 260 261 261 260 260 259 258 258 257 257 258 258 258 257 258 258 258 258 259 259 259 259 259 259 260 260 260 261 261 261 262 262 262 263 263 264 264 265 266 266 267 270 271 272 274 275 276 277 278 278 278 281
262 261 261 260 261 260 260 258 259 260 260 259 260 260 259 258 257 257 257 257 257 257 257 257 257 258 258 258 259 259 259 259 259 259 259 259 259 259 259 260 260 260 261 260 261 262 262 263 264 265 265 266 266 267 268 270 271 274 275 274 274 277
260 260 259 259 260 260 259 259 259 259 259 259 259 258 258 257 257 257 256 256 257 257 257 257 258 258 257 257 258 258 258 258 258 258 258 258 258 258 258 258 259 259 259 259 260 260 260 261 262 262 263 264 264 265 266 267 268 269 270 271 273 275
259 259 258 258 259 259 258 258 258 258 258 259 258 258 257 257 257 257 256 257 257 256 257 257 257 257 257 257 257 257 258 257 258 258 258 260 260 259 259 259 260 260 261 261 261 260 260 261 262 263 267 266 270 268 267 267 268 269 270 272 275 273
258 257 257 258 258 258 257 257 258 258 258 258 258 257 257 257 257 256 256 256 256 256 256 256 256 256 256 256 256 256 257 261 264 263 261 261 265 268 269 269 264 264 265 264 265 265 263 263 265 270 272 273 273 274 274 274 274 275 273 274 276 275
258 257 256 257 257 257 257 257 257 257 258 258 258 258 257 257 256 256 256 256 256 256 256 256 256 256 256 256 256 256 256 256 258 264 267 267 267 268 269 270 270 271 271 267 265 267 271 272 272 273 273 273 273 273 274 274 274 275 275 276 274 272
256 256 256 257 257 256 256 256 257 257 257 258 258 258 257 257 256 256 256 256 256 256 256 256 256 256 256 256 256 256 256 256 256 257 263 266 267 268 268 269 269 270 270 271 269 267 266 269 271 272 272 272 272 273 273 273 273 274 275 276 276 271
256 257 256 256 256 256 256 256 256 257 257 258 258 258 257 257 257 256 256 256 256 256 256 256 256 256 256 255 255 256 256 256 256 255 256 259 265 266 267 268 269 269 269 269 270 270 270 270 270 271 271 272 272 273 273 273 274 275 275 275 272 270
256 256 255 255 255 255 255 256 256 257 258 258 258 258 257 257 257 256 256 256 256 256 256 256 256 256 256 256 256 256 256 256 257 256 256 256 256 258 262 265 267 267 268 268 269 269 270 270 270 271 271 272 272 273 273 273 271 274 275 274 270 270
255 255 255 256 256 255 255 256 257 257 258 258 258 258 257 257 257 256 256 257 257 256 256 256 256 256 256 256 256 256 256 256 257 257 257 256 256 256 256 257 259 263 267 264 266 268 269 270 270 271 271 272 272 272 273 273 269 268 269 270 270 270
254 254 255 255 255 255 255 256 258 258 258 258 258 257 257 257 256 256 256 256 256 256 256 256 256 256 256 256 256 257 257 257 257 257 257 257 258 257 257 257 258 259 263 267 268 269 269 269 270 270 271 271 272 272 272 267 267 267 268 268 269 269

ECMWFFLT1_sfc_thetae_042.txt.gz
Theta_e
282 282 282 282 281 281 281 281 281 281 281 281 281 281 280 281 282 281 282 282 283 283 281 281 280 280 279 280 281 281 282 282 282 282 283 283 283 283 283 283 283 283 283 282 283 283 283 283 284 284 284 284 284 285 285 286 286 286 286 287 286 287
283 282 282 281 282 281 282 282 283 283 283 282 283 282 282 282 283 283 283 283 282 282 281 280 279 279 281 281 280 280 280 280 280 280 281 282 283 283 283 282 282 282 282 282 281 281 282 282 282 283 283 283 283 283 284 284 285 285 285 285 286 286
282 282 283 284 284 284 284 284 283 283 282 282 282 282 281 281 281 282 282 282 281 279 279 279 279 279 280 280 281 280 281 281 281 281 280 280 280 282 281 281 281 282 282 282 282 281 281 280 280 281 281 281 282 282 282 283 283 283 284 284 285 285
284 284 284 283 283 283 284 284 283 283 283 282 281 281 280 280 281 280 281 280 280 279 279 278 278 278 278 278 278 278 279 279 280 280 280 280 280 280 280 280 281 281 281 281 281 281 281 281 280 280 280 280 280 280 282 282 281 282 282 283 283 284
284 284 283 282 281 281 281 281 281 281 280 279 279 280 279 278 278 278 279 279 279 279 278 277 277 277 277 277 277 277 277 277 278 279 279 279 279 279 280 280 280 280 280 280 280 280 280 280 280 280 280 280 279 279 280 280 280 280 280 281 281 282
281 282 282 282 281 280 280 279 279 279 279 279 278 278 278 277 278 278 279 278 278 277 276 276 276 276 276 277 277 277 277 278 278 278 278 279 279 279 280 280 280 280 280 280 280 280 280 280 279 279 279 279 280 280 280 280 280 280 279 280 280 281
281 280 279 279 279 279 279 279 279 279 279 278 279 279 278 278 277 278 278 278 277 277 276 276 276 276 276 276 276 277 277 277 278 278 277 278 278 279 279 279 279 279 279 280 279 280 280 280 280 280 279 279 279 279 279 280 279 279 279 280 280 281
279 278 278 278 279 279 279 279 279 278 278 279 278 279 278 278 277 277 278 277 277 277 276 276 275 275 275 276 276 276 277 277 277 277 277 277 277 278 278 278 278 279 279 279 279 279 279 279 280 280 280 280 280 279 279 279 279 279 279 279 280 280
278 278 278 278 278 278 279 279 279 278 278 279 278 278 278 278 277 277 277 276 276 276 276 275 275 276 276 276 276 277 276 276 276 276 276 276 276 276 276 277 277 277 278 278 278 279 279 279 279 279 279 279 279 279 279 279 279 279 279 279 279 280
278 278 278 278 279 278 278 278 279 279 278 278 278 277 277 279 277 276 276 276 276 276 276 276 276 276 277 277 277 277 277 277 277 277 277 276 276 276 276 277 277 277 277 277 277 277 278 278 278 278 278 278 278 278 278 278 278 278 279 279 279 279
277 277 277 277 277 277 277 277 277 277 277 277 277 277 278 277 277 277 276 276 276 276 276 276 277 278 277 278 278 278 278 278 278 278 278 277 277 278 277 277 277 276 276 277 277 277 277 277 277 278 278 277 278 278 278 278 279 279 279 279 279 280
276 276 276 276 277 277 277 277 276 277 277 277 277 277 277 277 277 276 276 276 276 276 276 276 276 277 277 277 277 277 277 276 276 276 276 276 276 276 277 277 277 276 276 276 276 276 277 277 277 279 281 281 280 279 280 280 279 279 279 279 279 279
277 277 276 277 276 276 277 277 276 276 276 275 275 275 275 275 275 275 275 275 275 275 276 276 276 276 275 276 275 275 275 275 275 274 274 275 275 275 275 275 275 275 275 275 275 275 275 276 276 280 281 282 282 281 279 279 279 279 279 279 279 279
276 276 277 276 276 276 276 276 275 275 275 274 275 275 274 274 274 274 274 274 274 274 274 274 274 274 274 273 273 272 272 272 272 272 272 272 272 272 273 272 273 273 273 274 274 274 274 274 278 280 280 281 282 282 279 278 278 278 278 278 278 279
277 277 276 276 276 276 275 275 275 275 274 274 274 273 273 273 273 273 273 273 273 273 273 273 272 271 271 270 270 270 270 269 269 269 269 269 270 271 270 271 271 271 271 271 271 271 272 273 276 278 279 280 281 281 280 278 277 277 277 277 277 278
276 276 276 276 275 275 275 274 274 275 274 273 273 273 272 272 272 271 271 271 271 271 271 270 269 269 268 268 268 268 267 267 267 267 268 268 269 269 268 268 269 269 269 269 269 269 270 270 274 276 278 279 279 280 279 276 276 276 276 276 276 276
276 276 276 275 275 274 274 273 273 273 272 272 271 272 271 270 270 269 270 270 270 269 268 268 267 266 266 265 265 265 265 265 265 266 266 266 266 266 265 266 266 266 267 267 267 267 268 269 273 275 276 277 278 278 278 275 275 274 274 275 275 275
276 276 275 274 273 272 272 271 272 271 271 271 270 269 269 269 267 269 268 268 267 267 267 265 264 264 263 263 263 262 263 263 263 263 264 264 264 264 264 264 265 264 265 265 265 265 265 266 271 273 274 275 276 277 274 274 274 273 273 274 274 275
275 275 273 272 272 271 271 270 270 269 268 267 267 267 267 267 266 267 266 265 265 265 264 264 263 262 261 261 261 261 261 261 261 261 262 261 262 262 262 262 262 263 262 262 263 263 263 263 267 271 272 273 274 273 270 271 271 272 272 272 273 273
274 273 271 271 270 270 270 269 267 267 266 266 266 265 266 265 265 265 263 264 263 263 263 262 261 260 260 260 259 259 260 260 261 260 261 261 260 260 261 261 261 261 261 261 261 262 262 262 266 270 271 272 272 272 269 269 269 270 270 271 272 273
272 271 270 270 269 269 267 266 265 265 265 265 265 265 263 264 264 263 262 262 263 262 261 261 260 260 259 259 259 259 259 259 259 260 260 260 260 260 260 260 260 260 260 261 261 263 262 262 264 268 270 271 272 270 269 269 269 268 269 269 270 272
270 269 268 268 268 266 266 264 264 263 264 264 264 263 262 263 262 262 262 262 262 260 260 260 259 259 258 258 258 258 259 259 259 259 259 259 259 259 259 259 259 259 259 260 260 261 261 261 262 264 269 270 271 272 269 268 267 267 267 268 268 268
270 269 268 268 267 265 264 263 262 262 263 263 262 261 262 262 262 261 261 261 260 259 259 259 258 258 258 258 258 259 258 259 259 259 258 258 258 258 258 258 258 258 259 259 260 260 261 261 261 263 268 270 271 271 271 268 267 268 267 267 267 268
267 266 266 265 265 264 262 261 261 262 261 261 260 260 262 261 261 261 258 259 258 258 257 257 257 258 257 258 257 257 257 258 258 258 257 258 257 257 257 257 258 258 258 259 259 260 260 262 263 262 266 269 270 271 272 268 267 268 268 267 267 268
266 265 265 264 263 264 263 259 259 259 260 259 259 261 260 260 260 259 258 257 257 257 256 256 256 257 257 257 257 257 256 257 257 257 257 257 256 256 256 256 257 257 257 257 258 259 259 260 261 265 264 268 270 271 272 272 271 272 270 268 267 267
265 264 264 263 262 261 261 258 258 258 258 259 261 260 259 258 257 256 256 256 256 255 255 256 256 256 256 256 256 256 256 256 256 256 256 256 256 256 256 256 256 256 256 256 257 258 259 260 260 264 267 266 270 271 272 273 273 273 270 269 268 268
263 263 262 262 260 260 258 258 257 257 256 259 259 258 257 256 255 254 254 254 254 254 255 255 255 255 255 255 256 255 256 256 256 256 256 256 256 255 255 255 256 255 255 256 256 257 258 260 261 261 264 268 269 271 272 272 273 273 273 269 268 269
260 260 260 260 259 259 259 258 257 255 257 258 258 257 256 254 253 253 254 254 254 255 255 255 255 255 255 255 256 256 256 256 256 255 255 255 255 255 255 255 255 255 256 256 257 258 259 261 261 262 262 265 266 267 269 271 272 272 273 272 271 273
259 258 258 257 258 257 257 256 256 256 257 256 257 257 254 252 253 254 254 254 254 254 254 254 255 256 256 256 256 256 256 256 255 255 255 255 255 255 255 256 256 257 257 258 259 260 261 262 263 263 263 264 264 264 265 266 266 269 271 268 267 268
259 257 257 257 258 257 256 256 255 255 255 255 256 253 252 252 253 254 254 254 254 254 254 254 257 257 256 256 255 255 256 255 255 255 255 255 255 255 256 257 258 258 258 259 261 262 262 263 264 264 265 265 265 266 266 266 266 265 265 265 266 266
257 257 256 257 257 257 256 254 254 254 255 257 254 252 251 253 254 254 253 254 254 254 255 255 255 255 255 255 255 255 256 255 255 255 256 258 259 259 259 259 260 262 263 264 263 263 263 264 264 265 269 269 272 270 269 268 268 268 268 269 271 268
256 255 255 256 257 255 254 254 254 253 256 254 253 252 251 253 253 252 253 254 254 254 254 255 255 255 255 255 255 255 255 259 263 262 261 260 264 268 269 269 265 266 266 266 266 266 265 264 266 271 273 272 273 273 273 274 274 274 273 274 275 273
256 255 254 255 255 254 254 254 254 253 254 255 254 254 253 252 253 253 254 254 253 255 255 255 255 255 255 255 255 255 255 255 257 263 265 266 266 268 269 270 270 271 271 268 266 267 271 272 272 273 273 272 273 273 274 274 274 275 275 275 271 269
255 255 255 255 255 254 253 253 253 252 253 253 253 253 252 252 252 253 254 254 254 255 255 255 255 255 255 255 255 255 255 254 254 256 262 266 266 267 268 269 269 270 270 270 269 267 266 269 272 273 273 273 273 273 274 274 274 275 275 275 274 268
257 257 256 254 253 252 252 252 253 252 252 253 252 252 252 252 252 253 253 254 254 255 255 255 255 255 254 254 254 254 254 254 254 254 255 258 265 267 267 267 267 268 269 270 270 271 270 271 271 272 272 273 273 273 273 274 275 275 275 274 269 265
256 255 254 252 251 252 251 252 253 252 253 253 253 252 251 252 252 253 253 253 254 254 254 254 254 254 255 255 255 254 255 255 255 255 255 255 256 258 262 265 266 267 267 268 269 270 270 271 271 271 272 272 273 273 273 273 271 273 273 270 265 264
253 252 253 254 253 252 252 252 253 252 253 252 251 250 250 251 253 252 254 256 256 254 254 255 255 255 254 255 254 254 255 255 256 256 256 256 255 255 256 256 258 263 267 265 266 268 269 269 270 271 271 272 272 272 272 271 266 264 264 264 264 264
252 252 252 252 252 250 252 252 253 253 252 251 250 250 250 252 253 253 253 254 255 254 254 255 254 255 255 254 254 255 256 256 256 256 256 256 256 256 256 257 258 258 263 266 267 267 268 269 269 270 271 270 270 269 269 263 262 262 262 263 264 264

ECMWFFLT1_sfc_thetae_045.txt.gz
Theta_e
281 281 281 281 282 282 282 282 281 281 281 281 281 281 280 280 281 280 280 280 281 280 279 279 279 280 279 279 279 279 278 278 279 279 278 278 279 280 279 279 279 280 280 280 280 280 281 281 282 282 282 282 281 282 282 282 283 282 282 283 284 284
281 282 282 282 281 281 281 281 280 280 280 280 280 279 280 280 280 281 281 282 281 281 280 280 280 280 279 279 278 279 278 278 279 279 279 279 279 279 279 279 278 279 278 279 279 279 279 279 280 281 281 281 281 281 281 281 281 281 281 281 282 283
281 282 282 283 283 283 283 283 283 283 282 281 281 280 279 279 280 280 280 280 279 279 278 278 279 279 279 279 278 278 278 278 279 279 278 278 279 278 279 278 278 279 279 278 279 278 278 279 279 279 279 279 280 280 280 281 281 280 280 281 281 281
283 283 283 284 283 283 283 283 282 282 282 281 280 279 278 279 279 279 279 279 279 278 278 278 278 278 277 277 278 278 278 278 278 278 279 279 279 278 278 278 278 278 278 278 278 279 279 279 279 278 278 278 278 279 280 280 280 279 279 280 279 280
284 283 283 282 282 282 281 281 280 280 280 280 279 279 279 278 278 277 277 277 277 277 277 276 277 276 276 277 277 277 278 278 279 278 278 278 278 279 278 278 278 278 278 278 278 278 278 278 278 278 278 278 278 278 278 279 278 278 278 279 279 279
281 281 281 281 280 280 280 279 279 279 279 278 278 279 278 278 278 277 278 278 277 276 276 276 276 276 276 276 276 276 277 277 277 277 277 278 277 278 278 278 278 278 277 277 278 278 277 278 278 278 278 278 278 278 278 278 278 278 278 278 278 279
279 280 279 279 278 278 278 279 279 278 279 278 278 278 278 277 277 277 277 277 277 276 276 276 275 275 275 275 275 276 276 276 277 276 276 276 276 276 276 277 276 276 276 277 277 277 277 277 277 277 277 278 277 277 277 277 277 277 277 277 278 280
279 279 278 278 278 278 279 279 278 278 278 278 277 277 277 277 277 277 277 277 277 276 276 275 275 275 275 275 275 276 276 276 276 275 275 275 276 276 275 276 276 276 276 276 276 276 276 276 276 276 277 277 277 277 277 277 277 277 277 277 277 277
279 279 278 278 278 278 279 278 278 277 277 277 277 277 277 277 277 276 276 276 275 275 275 275 275 275 274 275 275 275 275 275 275 275 275 276 275 275 275 275 275 275 275 275 275 275 275 276 276 276 276 276 276 276 276 276 276 277 277 277 278 278
279 278 278 277 277 277 276 276 276 277 276 276 276 276 276 277 276 275 275 275 275 275 275 275 274 275 275 275 275 275 275 275 274 274 274 274 274 274 274 274 274 274 274 274 274 274 275 275 275 275 275 275 275 275 276 276 276 277 277 277 278 278
279 278 277 277 276 276 276 276 276 276 276 276 275 275 275 275 275 275 275 275 274 274 274 275 275 275 274 274 274 273 273 272 272 272 272 272 272 272 272 272 272 272 272 272 272 272 273 273 273 274 274 275 275 276 276 276 277 277 276 277 277 278
277 277 277 276 277 277 276 276 276 276 275 275 275 274 275 274 274 274 274 274 273 274 274 274 273 273 272 272 271 271 271 270 270 270 270 270 270 269 270 270 270 270 270 270 270 270 271 271 272 273 276 277 276 275 276 276 276 276 276 276 276 276
276 276 276 276 275 276 276 276 276 275 274 274 274 274 274 273 273 273 272 272 273 272 272 272 271 271 270 270 270 269 268 268 268 267 267 267 267 268 268 268 268 268 268 268 268 268 268 269 270 273 275 277 278 276 275 275 275 275 275 275 275 275
277 276 276 276 276 276 276 276 275 274 274 274 273 273 273 272 272 272 272 271 271 271 271 270 269 268 268 267 267 266 266 266 265 265 265 265 266 266 266 266 266 266 266 266 266 266 266 267 270 273 274 275 276 276 274 274 273 274 274 274 274 274
277 277 276 276 276 276 275 275 274 274 273 273 273 272 271 271 270 270 270 270 269 269 269 268 266 266 265 265 264 264 264 263 263 263 263 263 264 264 264 264 264 264 265 265 264 264 265 265 268 271 273 274 275 275 274 272 273 273 273 273 273 273
276 276 276 276 275 275 274 274 274 273 273 272 271 270 270 269 269 269 268 268 268 267 267 266 263 263 263 263 263 262 262 262 262 262 263 263 263 263 262 262 263 263 263 263 263 263 263 263 266 271 272 273 274 275 274 271 271 271 271 271 271 271
276 276 275 275 274 273 273 273 273 272 271 271 270 269 268 268 267 267 268 266 266 265 264 264 263 262 262 262 261 261 260 261 261 261 261 261 261 261 261 261 261 261 262 261 261 261 261 262 268 270 271 272 273 274 274 270 270 269 269 269 269 269
276 276 275 275 273 272 272 272 271 270 269 269 269 267 268 266 266 266 266 264 264 263 264 262 261 261 260 261 260 259 260 260 260 260 260 260 260 260 261 261 261 260 260 260 260 260 260 261 268 269 270 272 273 274 270 268 268 268 268 268 269 269
277 276 274 273 272 271 271 270 269 268 267 266 265 265 265 265 264 264 264 263 263 262 262 262 261 260 260 260 259 258 259 259 259 259 260 259 259 260 259 259 259 260 260 259 260 259 260 260 264 268 270 271 272 271 267 267 267 267 267 267 268 269
275 274 273 271 270 270 269 268 267 266 265 265 265 263 264 263 263 263 262 262 261 262 262 261 259 259 259 258 258 258 259 259 259 258 259 259 258 258 258 259 259 259 259 259 259 259 259 260 263 268 269 270 271 270 267 267 266 266 267 267 268 268
274 272 271 270 268 268 267 265 265 264 264 264 264 263 262 263 263 262 261 262 262 261 260 259 259 259 258 257 258 257 257 258 258 258 258 258 258 258 258 258 258 258 258 258 259 261 260 260 262 266 268 270 270 269 267 267 267 266 266 266 266 267
271 269 269 268 268 266 265 263 263 263 263 264 263 262 261 263 262 262 262 261 261 259 258 258 258 258 257 257 257 257 257 258 257 257 258 258 257 257 257 258 257 257 257 258 258 259 259 259 259 262 268 269 270 271 268 267 266 265 266 266 266 266
272 271 269 268 266 265 264 263 263 262 262 263 262 261 262 262 262 261 261 261 259 258 257 257 256 257 256 257 257 257 257 257 257 257 257 256 257 256 256 256 257 257 257 258 258 259 259 259 259 261 267 269 270 271 270 267 267 267 266 266 266 267
269 267 267 266 265 264 262 262 262 262 261 261 260 260 262 261 261 260 258 258 257 256 255 255 256 256 256 256 256 256 256 257 256 256 256 256 256 255 255 256 256 256 257 257 258 258 258 260 262 261 265 268 270 271 272 268 268 269 268 268 268 268
268 267 266 264 263 263 262 260 259 260 259 259 259 261 259 260 259 259 258 256 255 255 254 254 255 255 255 255 256 255 255 256 255 255 255 255 255 255 255 255 256 256 256 256 257 258 258 259 259 264 263 268 270 271 272 272 271 273 271 269 267 268
267 266 264 263 262 262 262 259 259 258 258 259 261 260 258 257 257 256 255 254 253 253 254 253 254 254 254 254 254 254 254 254 254 255 255 255 255 254 254 255 255 255 255 255 256 257 258 259 260 263 267 266 270 271 273 273 274 274 271 270 269 269
266 264 263 262 261 260 259 258 257 257 256 259 259 258 257 256 254 253 252 251 251 252 253 253 253 253 254 254 254 254 255 254 253 254 254 254 254 254 254 254 255 254 254 255 256 258 259 260 261 261 264 269 270 272 272 273 274 274 274 270 270 270
263 263 262 260 260 260 258 258 257 256 257 258 258 257 256 254 253 252 252 252 252 253 253 253 254 254 254 254 254 254 255 254 254 254 254 254 254 254 254 254 254 255 256 257 258 259 260 262 263 264 265 266 268 269 270 272 273 273 273 273 272 274
263 263 262 262 260 259 257 255 256 256 257 255 257 256 254 252 252 253 252 252 252 252 252 253 253 254 255 254 255 255 255 255 254 254 254 254 253 254 254 255 255 256 257 258 259 261 262 262 263 265 266 266 266 266 267 268 268 271 272 269 268 269
264 262 261 262 261 260 259 258 256 255 254 254 256 253 252 252 252 252 251 252 251 252 253 253 255 256 254 254 254 254 254 254 254 253 254 254 254 255 256 256 257 258 259 259 260 260 260 263 265 266 266 266 267 267 268 269 269 269 268 268 267 267
263 262 261 261 261 260 260 257 255 254 255 257 254 252 251 252 253 251 251 251 252 252 254 254 254 253 254 254 254 254 254 254 254 255 255 257 257 257 257 257 258 260 262 263 263 264 264 265 265 266 270 270 273 271 270 270 270 270 270 272 274 272
262 260 260 260 260 258 257 256 255 253 256 254 253 252 251 252 251 250 250 251 251 252 252 253 253 252 254 253 253 254 254 258 262 262 260 260 264 267 269 269 266 266 267 266 267 267 265 265 267 272 273 273 274 274 275 274 275 275 273 275 276 273
260 259 258 259 258 256 255 256 256 254 253 254 254 252 251 250 251 251 252 252 252 253 254 253 253 253 253 253 254 253 254 254 256 261 264 265 266 267 269 269 270 270 271 268 266 267 271 271 272 273 273 273 273 274 274 274 275 275 275 275 272 269
258 258 257 257 256 255 254 255 255 253 252 252 252 252 251 251 251 251 252 252 252 254 254 253 254 254 253 253 254 253 253 253 253 255 260 264 266 267 268 268 269 269 269 269 269 267 266 269 271 272 272 273 273 273 273 273 273 273 273 273 272 266
258 258 257 256 255 255 255 255 255 253 251 252 251 251 250 250 250 251 251 252 253 253 254 254 253 253 253 253 253 253 253 253 253 253 254 257 263 265 265 266 266 267 268 269 269 270 270 270 270 271 272 272 272 271 271 271 271 270 270 269 264 262
257 257 256 256 255 255 254 254 253 252 252 251 251 251 250 250 250 251 251 251 252 253 253 253 253 253 253 253 254 253 253 253 253 254 254 254 255 257 260 262 263 265 266 267 268 269 269 270 270 271 272 271 270 270 269 268 264 266 267 265 260 260
255 254 255 255 255 254 253 253 253 252 251 251 250 249 249 249 252 250 253 255 255 252 253 253 254 254 253 253 253 253 253 254 254 255 255 254 254 254 254 255 257 261 265 264 265 267 268 269 270 271 270 269 268 268 268 264 258 257 257 258 258 259
254 253 254 255 254 253 253 253 253 252 252 250 248 249 249 251 252 251 253 253 253 253 253 253 253 254 253 253 253 253 254 255 255 255 254 255 255 254 254 255 256 257 261 265 266 266 267 268 270 270 268 267 267 267 265 256 255 255 256 256 257 257

ECMWFFLT1_sfc_thetae_048.txt.gz
Theta_e
280 279 279 279 278 279 278 279 279 279 279 279 279 279 279 279 280 279 279 279 280 280 279 279 279 279 278 277 277 278 278 278 278 278 278 278 279 279 279 278 278 279 278 278 278 278 278 278 278 278 278 278 277 278 278 279 279 278 278 279 280 280
280 279 279 279 279 279 279 278 278 278 279 279 279 279 279 279 279 279 279 278 279 279 278 278 277 278 278 278 278 278 278 278 278 278 278 278 278 278 278 277 277 278 278 278 278 278 278 278 278 278 277 277 277 277 277 278 278 277 277 278 279 279
280 279 279 280 279 280 280 280 279 280 279 279 279 279 277 278 278 278 278 278 277 277 277 277 277 277 277 277 277 277 277 278 278 277 277 277 277 277 277 277 277 277 277 277 277 277 277 277 277 277 277 276 276 277 277 277 277 276 276 277 277 278
280 280 280 280 280 281 281 282 282 281 279 278 277 277 277 277 277 277 277 277 277 277 277 276 276 276 276 276 276 276 277 277 277 277 277 277 277 277 277 277 277 277 277 276 276 276 276 276 276 276 276 276 276 276 277 277 276 276 276 276 276 276
280 281 282 282 282 282 282 281 280 279 279 279 277 277 277 277 277 277 277 277 277 276 275 275 275 275 275 275 276 276 276 276 276 277 276 276 276 277 276 276 276 276 276 276 276 275 275 276 275 276 276 275 275 275 275 276 275 275 275 275 275 275
280 280 281 281 281 280 280 279 279 279 278 277 277 277 277 277 277 277 277 277 276 275 275 275 275 275 275 275 275 275 275 276 276 276 276 276 276 275 276 276 275 275 275 275 275 275 275 275 275 275 275 275 275 275 275 275 275 275 275 275 275 275
280 281 280 280 280 279 278 279 279 278 277 277 277 277 277 277 277 276 276 276 275 275 275 275 275 275 275 275 275 275 275 275 275 275 274 275 274 274 274 274 274 274 274 274 273 273 273 274 274 274 274 274 274 274 274 274 275 275 275 275 275 277
280 280 279 279 279 279 279 279 278 277 277 277 277 277 277 277 276 276 276 275 275 275 274 275 275 275 275 275 275 274 274 274 274 273 273 273 273 273 273 272 272 272 272 272 272 272 272 272 272 272 273 273 273 274 274 274 274 274 275 275 275 276
279 279 279 279 279 278 278 278 277 276 277 276 276 276 276 276 275 276 275 275 274 274 274 274 274 274 274 274 274 274 273 272 272 272 271 272 271 271 271 271 271 271 271 271 271 271 271 271 271 271 271 272 272 272 273 273 274 274 275 275 275 275
279 279 279 278 278 277 277 276 277 277 277 276 276 275 275 276 275 275 275 274 274 274 274 274 274 274 274 273 273 272 271 271 270 270 270 269 269 269 269 269 269 269 270 270 269 269 270 269 269 270 270 271 271 272 272 273 273 273 273 274 274 274
279 279 279 278 277 277 276 276 275 275 275 275 274 275 274 274 275 274 274 274 274 273 273 273 273 272 272 271 270 270 269 269 268 268 268 268 268 268 268 268 268 268 267 268 268 268 268 268 268 269 269 270 271 272 272 272 272 272 272 272 273 273
279 279 278 277 277 277 276 276 275 275 275 275 274 274 274 274 274 273 273 273 272 272 272 271 270 270 270 269 268 267 267 266 266 266 266 266 266 266 266 266 266 266 265 265 266 266 266 266 267 269 272 274 272 272 272 272 272 272 272 271 271 271
278 278 277 277 277 277 277 277 276 275 274 274 274 274 273 273 272 272 271 272 271 270 270 269 268 268 267 267 266 264 264 265 264 263 264 263 264 264 264 264 264 264 264 264 264 264 265 265 266 270 272 274 275 273 272 271 271 271 271 271 271 271
277 277 277 277 277 277 277 276 275 274 274 273 273 273 272 271 271 271 270 270 269 269 268 267 266 265 265 264 263 263 262 261 261 261 262 261 262 263 262 263 263 263 263 263 263 263 263 263 266 270 272 273 274 274 272 272 271 271 271 270 270 270
278 278 278 277 276 277 277 276 275 274 274 273 273 271 270 270 270 269 268 268 267 267 266 265 263 263 262 262 261 261 260 260 261 260 260 260 261 261 261 262 262 262 262 262 262 262 262 262 266 269 271 273 274 274 273 271 271 270 270 269 269 268
277 277 277 276 276 276 276 275 275 274 273 272 270 269 269 269 268 267 267 266 266 265 265 264 262 262 261 261 260 260 259 259 259 260 260 260 260 260 260 260 261 261 261 261 261 261 261 261 265 270 271 272 273 274 274 271 270 269 268 268 268 268
277 276 275 275 275 274 274 273 273 272 271 270 269 268 268 267 267 266 266 265 265 264 262 263 262 260 261 260 259 258 258 259 259 259 260 259 260 260 259 259 259 259 260 260 260 260 260 261 267 269 271 271 273 274 273 270 268 267 267 268 268 268
277 277 276 275 274 273 273 273 272 270 269 268 268 267 267 266 265 265 264 264 263 262 263 261 260 259 259 260 258 258 259 259 258 258 259 258 259 258 259 259 259 259 259 259 259 259 259 260 266 268 270 271 272 273 270 268 267 267 267 267 267 268
277 277 275 274 273 273 272 271 270 269 267 266 265 265 265 265 263 264 264 262 262 262 262 262 260 259 258 258 258 257 257 259 258 258 257 257 258 258 258 258 258 258 258 258 258 258 258 259 263 268 269 271 272 271 268 268 267 266 266 266 267 268
276 275 275 273 272 271 270 269 268 267 266 265 265 264 264 263 263 263 262 262 261 262 261 261 259 258 257 256 256 256 258 257 257 256 257 257 257 257 257 258 257 258 258 258 257 258 258 259 262 267 269 270 271 271 268 267 266 266 266 266 267 267
276 274 273 272 270 269 268 267 266 266 265 265 264 263 263 263 263 262 261 262 262 261 260 259 258 258 257 256 257 256 256 256 256 257 256 257 256 257 257 257 257 257 257 257 258 260 260 259 261 265 267 269 271 270 268 268 267 266 266 266 266 267
272 271 271 271 271 268 266 265 266 265 265 264 264 263 262 263 262 262 262 261 261 259 258 258 258 257 256 257 256 255 256 256 255 255 256 256 256 256 256 256 256 256 256 257 257 258 258 258 259 261 267 269 270 272 269 268 267 265 266 266 267 266
274 273 273 272 269 266 265 265 265 265 263 263 263 262 263 262 262 261 261 261 259 258 258 257 256 255 255 255 255 256 255 255 256 256 255 255 255 255 255 255 255 256 256 257 258 258 258 258 259 260 267 269 270 272 271 268 267 267 267 267 267 267
272 270 269 267 266 265 264 265 265 263 263 262 262 262 262 261 261 260 258 258 258 257 256 255 254 255 254 254 253 253 254 254 254 255 254 255 255 254 254 255 255 255 256 256 257 257 257 259 262 261 265 269 271 272 273 269 269 270 269 269 269 269
271 270 268 266 264 264 264 263 263 262 261 262 262 261 261 261 260 259 258 257 256 255 254 253 253 254 253 253 254 253 253 254 253 253 254 254 254 254 254 254 255 255 255 256 256 257 258 258 259 264 264 269 271 272 273 273 272 274 271 270 269 269
270 268 265 264 263 263 264 263 262 261 261 262 262 261 259 259 257 256 256 255 254 253 253 252 252 253 252 252 252 251 252 253 252 253 253 254 253 253 253 254 254 254 254 254 256 257 258 259 260 263 267 268 271 273 273 274 274 275 272 271 271 271
269 267 263 263 262 262 261 261 262 260 260 261 261 260 258 256 255 254 252 251 250 251 251 250 251 251 251 251 252 252 253 253 251 253 253 253 253 253 253 254 253 253 254 255 256 258 259 260 262 263 266 270 271 272 273 273 274 275 275 272 271 271
265 264 263 262 261 261 261 261 261 261 259 260 260 258 257 255 253 252 252 251 251 252 250 250 252 251 252 252 252 253 253 253 253 253 253 253 253 253 253 253 253 253 255 256 258 260 261 263 264 265 265 267 268 270 272 273 274 274 274 274 273 274
265 264 263 263 262 261 261 260 260 260 260 259 258 257 254 252 253 254 254 254 253 251 250 250 251 252 253 251 252 252 253 253 252 252 253 253 253 252 252 253 254 255 256 257 259 261 263 263 264 265 266 267 267 267 268 270 270 273 274 272 271 272
267 265 264 264 263 262 261 260 260 259 259 259 258 255 254 255 255 255 255 254 251 251 251 251 254 255 253 252 251 252 253 252 252 252 253 253 253 253 253 254 255 257 258 259 260 260 262 265 266 266 266 267 268 270 271 271 271 271 271 271 271 272
267 266 265 266 264 262 261 260 260 258 258 259 256 255 256 256 256 255 253 251 251 250 252 252 252 252 252 252 252 252 253 253 253 254 254 256 256 256 255 256 257 259 260 260 261 263 265 265 265 266 270 271 273 271 271 271 270 270 270 271 273 271
267 266 265 264 262 261 260 259 258 257 258 257 256 256 256 256 255 252 251 251 251 250 250 252 251 250 252 251 252 252 253 257 261 260 259 259 263 267 268 267 262 264 266 267 267 267 265 265 266 271 273 273 274 274 274 273 273 273 271 271 272 269
264 263 262 262 260 260 259 258 256 255 256 257 257 256 256 256 254 253 252 252 251 252 251 251 252 252 251 252 252 252 252 253 255 261 264 265 265 267 268 269 270 271 271 269 266 268 270 271 272 272 272 273 273 273 272 272 272 271 270 271 266 262
262 263 263 260 259 258 257 256 256 256 256 257 257 256 255 254 254 253 252 252 252 253 254 252 252 252 252 252 252 252 252 252 252 254 259 263 264 265 266 268 269 270 269 269 269 267 266 269 271 271 272 273 272 271 271 271 270 269 269 268 265 258
263 260 259 257 257 256 256 256 256 255 255 254 254 255 253 253 252 252 251 251 252 253 254 253 252 252 252 251 251 251 251 252 251 251 252 256 261 263 264 266 267 267 267 268 268 269 269 269 270 271 272 272 271 270 270 270 268 267 267 265 258 255
259 258 257 256 255 256 255 255 255 255 255 254 254 254 253 253 252 252 251 251 252 252 252 252 252 252 252 252 253 252 252 252 252 251 252 252 253 255 258 261 263 264 266 266 267 268 268 269 270 271 271 270 269 270 269 267 262 264 264 262 256 255
257 256 256 256 255 255 255 255 255 254 254 252 251 251 251 251 252 250 252 254 254 252 252 253 254 253 252 252 252 251 251 252 252 253 253 252 252 252 253 254 255 259 262 262 264 266 267 268 269 270 270 269 269 268 267 263 256 255 255 255 254 255
256 255 255 255 255 254 255 255 254 253 253 251 250 250 250 251 252 252 253 252 253 253 253 253 252 253 253 252 251 252 252 253 253 253 253 253 253 253 252 253 254 254 259 263 264 265 266 267 268 269 269 268 267 267 264 254 254 254 254 254 255 254